Wetterdaten: Samstag, 14.10.2023
Datum Zeit Temp. Aussen Temp. o. S. Temp +5cm Feuchte Auss Luftdruck Regen Sonnenschein Regendauer Solar Windben Empfang
14.10.2023 00:00 20,0 C 18,9 C 12,8 C 83 % 1001,2 hPa 0,0 l/m 0 min 0 min 0 W/m 22,5 km/h (4 Bft) 97,92 %
14.10.2023 00:02 20,0 C 18,9 C 12,8 C 83 % 1001,3 hPa 0,0 l/m 0 min 0 min 0 W/m 32,2 km/h (5 Bft) 100,00 %
14.10.2023 00:04 20,0 C 18,9 C 12,8 C 83 % 1001,3 hPa 0,0 l/m 0 min 0 min 0 W/m 29,0 km/h (5 Bft) 100,00 %
14.10.2023 00:08 20,1 C 18,9 C 12,8 C 82 % 1001,2 hPa 0,0 l/m 0 min 0 min 0 W/m 35,4 km/h (5 Bft) 98,91 %
14.10.2023 00:09 20,1 C 18,9 C 12,8 C 83 % 1001,1 hPa 0,0 l/m 0 min 0 min 0 W/m 12,9 km/h (3 Bft) 100,00 %
14.10.2023 00:10 20,1 C 18,9 C 12,8 C 82 % 1001,1 hPa 0,0 l/m 0 min 0 min 0 W/m 35,4 km/h (5 Bft) 100,00 %
14.10.2023 00:14 20,1 C 18,9 C 12,8 C 82 % 1001,1 hPa 0,0 l/m 0 min 0 min 0 W/m 29,0 km/h (5 Bft) 97,50 %
14.10.2023 00:16 20,1 C 18,9 C 12,8 C 82 % 1001,1 hPa 0,0 l/m 0 min 0 min 0 W/m 29,0 km/h (5 Bft) 100,00 %
14.10.2023 00:18 20,1 C 18,9 C 12,8 C 82 % 1001,0 hPa 0,0 l/m 0 min 0 min 0 W/m 32,2 km/h (5 Bft) 100,00 %
14.10.2023 00:20 20,1 C 18,9 C 12,8 C 82 % 1000,9 hPa 0,0 l/m 0 min 0 min 0 W/m 16,1 km/h (3 Bft) 97,87 %
14.10.2023 00:22 20,1 C 18,9 C 12,8 C 82 % 1001,2 hPa 0,0 l/m 0 min 0 min 0 W/m 22,5 km/h (4 Bft) 100,00 %
14.10.2023 00:24 20,1 C 18,9 C 12,8 C 82 % 1001,0 hPa 0,0 l/m 0 min 0 min 0 W/m 25,7 km/h (4 Bft) 100,00 %
14.10.2023 00:26 20,1 C 18,9 C 12,8 C 82 % 1001,0 hPa 0,0 l/m 0 min 0 min 0 W/m 16,1 km/h (3 Bft) 97,87 %
14.10.2023 00:28 20,1 C 18,9 C 12,8 C 82 % 1000,9 hPa 0,0 l/m 0 min 0 min 0 W/m 32,2 km/h (5 Bft) 97,87 %
14.10.2023 00:30 20,1 C 18,9 C 12,8 C 82 % 1001,0 hPa 0,0 l/m 0 min 0 min 0 W/m 22,5 km/h (4 Bft) 96,36 %
14.10.2023 00:32 20,1 C 18,9 C 12,8 C 82 % 1000,8 hPa 0,0 l/m 0 min 0 min 0 W/m 41,8 km/h (6 Bft) 95,74 %
14.10.2023 00:34 20,1 C 18,9 C 12,8 C 82 % 1000,7 hPa 0,0 l/m 0 min 0 min 0 W/m 16,1 km/h (3 Bft) 97,87 %
14.10.2023 00:36 20,1 C 18,9 C 12,8 C 82 % 1000,7 hPa 0,0 l/m 0 min 0 min 0 W/m 16,1 km/h (3 Bft) 95,74 %
14.10.2023 00:38 20,1 C 18,9 C 12,8 C 82 % 1000,7 hPa 0,0 l/m 0 min 0 min 0 W/m 12,9 km/h (3 Bft) 97,87 %
14.10.2023 00:40 20,1 C 18,9 C 12,8 C 82 % 1000,7 hPa 0,0 l/m 0 min 0 min 0 W/m 19,3 km/h (3 Bft) 95,74 %
14.10.2023 00:42 20,0 C 18,9 C 12,8 C 82 % 1000,8 hPa 0,0 l/m 0 min 0 min 0 W/m 25,7 km/h (4 Bft) 97,87 %
14.10.2023 00:44 20,0 C 18,9 C 12,8 C 82 % 1000,7 hPa 0,0 l/m 0 min 0 min 0 W/m 38,6 km/h (5 Bft) 95,65 %
14.10.2023 00:46 20,0 C 18,9 C 12,8 C 82 % 1000,7 hPa 0,0 l/m 0 min 0 min 0 W/m 25,7 km/h (4 Bft) 97,87 %
14.10.2023 00:48 19,9 C 18,9 C 12,8 C 82 % 1000,7 hPa 0,0 l/m 0 min 0 min 0 W/m 19,3 km/h (3 Bft) 97,87 %
14.10.2023 00:50 19,9 C 18,9 C 12,2 C 82 % 1000,7 hPa 0,0 l/m 0 min 0 min 0 W/m 32,2 km/h (5 Bft) 95,74 %
14.10.2023 00:52 20,0 C 18,9 C 12,2 C 82 % 1000,7 hPa 0,0 l/m 0 min 0 min 0 W/m 32,2 km/h (5 Bft) 97,87 %
14.10.2023 00:54 20,0 C 18,9 C 12,2 C 82 % 1000,6 hPa 0,0 l/m 0 min 0 min 0 W/m 29,0 km/h (5 Bft) 97,92 %
14.10.2023 00:56 20,0 C 18,9 C 12,2 C 81 % 1000,6 hPa 0,0 l/m 0 min 0 min 0 W/m 22,5 km/h (4 Bft) 97,92 %
14.10.2023 00:58 20,1 C 18,9 C 12,2 C 81 % 1000,6 hPa 0,0 l/m 0 min 0 min 0 W/m 38,6 km/h (5 Bft) 95,45 %
14.10.2023 01:00 20,1 C 18,9 C 12,2 C 81 % 1000,6 hPa 0,0 l/m 0 min 0 min 0 W/m 35,4 km/h (5 Bft) 100,00 %
14.10.2023 01:02 20,1 C 18,9 C 12,8 C 81 % 1000,5 hPa 0,0 l/m 0 min 0 min 0 W/m 32,2 km/h (5 Bft) 100,00 %
14.10.2023 01:04 20,1 C 18,9 C 12,8 C 81 % 1000,6 hPa 0,0 l/m 0 min 0 min 0 W/m 19,3 km/h (3 Bft) 100,00 %
14.10.2023 01:08 20,1 C 18,9 C 13,9 C 80 % 1000,6 hPa 0,0 l/m 0 min 0 min 0 W/m 29,0 km/h (5 Bft) 97,98 %
14.10.2023 01:09 20,2 C 18,9 C 13,9 C 80 % 1000,8 hPa 0,0 l/m 0 min 0 min 0 W/m 32,2 km/h (5 Bft) 100,00 %
14.10.2023 01:10 20,2 C 19,4 C 13,9 C 80 % 1000,8 hPa 0,0 l/m 0 min 0 min 0 W/m 41,8 km/h (6 Bft) 100,00 %
14.10.2023 01:14 20,2 C 19,4 C 14,4 C 79 % 1000,8 hPa 0,0 l/m 0 min 0 min 0 W/m 29,0 km/h (5 Bft) 97,87 %
14.10.2023 01:16 20,3 C 18,9 C 14,4 C 79 % 1000,8 hPa 0,0 l/m 0 min 2 min 0 W/m 35,4 km/h (5 Bft) 97,87 %
14.10.2023 01:18 20,3 C 18,9 C 13,9 C 80 % 1000,8 hPa 0,0 l/m 0 min 2 min 0 W/m 38,6 km/h (5 Bft) 97,83 %
14.10.2023 01:20 20,2 C 18,9 C 13,9 C 80 % 1000,8 hPa 0,0 l/m 0 min 2 min 0 W/m 41,8 km/h (6 Bft) 98,00 %
14.10.2023 01:22 20,2 C 18,9 C 13,9 C 81 % 1000,8 hPa 0,0 l/m 0 min 0 min 0 W/m 35,4 km/h (5 Bft) 97,87 %
14.10.2023 01:24 20,2 C 18,9 C 13,9 C 81 % 1000,9 hPa 0,0 l/m 0 min 0 min 0 W/m 61,2 km/h (7 Bft) 97,87 %
14.10.2023 01:26 20,1 C 18,9 C 13,9 C 81 % 1000,9 hPa 0,0 l/m 0 min 2 min 0 W/m 35,4 km/h (5 Bft) 97,87 %
14.10.2023 01:28 20,1 C 18,9 C 13,9 C 81 % 1000,9 hPa 0,0 l/m 0 min 2 min 0 W/m 29,0 km/h (5 Bft) 97,87 %
14.10.2023 01:30 20,1 C 18,9 C 14,4 C 81 % 1000,8 hPa 0,0 l/m 0 min 2 min 0 W/m 29,0 km/h (5 Bft) 97,87 %
14.10.2023 01:32 20,1 C 18,9 C 14,4 C 81 % 1000,8 hPa 0,0 l/m 0 min 2 min 0 W/m 38,6 km/h (5 Bft) 97,83 %
14.10.2023 01:34 20,0 C 18,9 C 14,4 C 81 % 1001,0 hPa 0,0 l/m 0 min 2 min 0 W/m 51,5 km/h (7 Bft) 97,87 %
14.10.2023 01:36 20,0 C 18,3 C 14,4 C 81 % 1001,0 hPa 0,0 l/m 0 min 2 min 0 W/m 22,5 km/h (4 Bft) 97,87 %
14.10.2023 01:38 20,0 C 18,3 C 14,4 C 82 % 1000,9 hPa 0,0 l/m 0 min 2 min 0 W/m 19,3 km/h (3 Bft) 95,74 %
14.10.2023 01:40 19,9 C 18,3 C 14,4 C 81 % 1000,9 hPa 0,0 l/m 0 min 2 min 0 W/m 25,7 km/h (4 Bft) 95,74 %
14.10.2023 01:42 19,9 C 18,3 C 13,9 C 82 % 1000,9 hPa 0,0 l/m 0 min 2 min 0 W/m 25,7 km/h (4 Bft) 97,87 %
14.10.2023 01:44 19,8 C 17,8 C 12,8 C 83 % 1001,0 hPa 0,0 l/m 0 min 2 min 0 W/m 29,0 km/h (5 Bft) 97,87 %
14.10.2023 01:46 19,7 C 17,8 C 12,8 C 83 % 1000,9 hPa 0,2 l/m 0 min 2 min 0 W/m 29,0 km/h (5 Bft) 95,65 %
14.10.2023 01:48 19,6 C 17,2 C 12,8 C 84 % 1000,8 hPa 0,0 l/m 0 min 2 min 0 W/m 19,3 km/h (3 Bft) 97,87 %
14.10.2023 01:50 19,4 C 17,8 C 12,8 C 85 % 1000,8 hPa 0,0 l/m 0 min 0 min 0 W/m 32,2 km/h (5 Bft) 97,87 %
14.10.2023 01:52 19,3 C 17,2 C 12,8 C 85 % 1001,0 hPa 0,0 l/m 0 min 2 min 0 W/m 32,2 km/h (5 Bft) 95,74 %
14.10.2023 01:54 19,2 C 16,7 C 12,8 C 86 % 1001,0 hPa 0,2 l/m 0 min 2 min 0 W/m 25,7 km/h (4 Bft) 100,00 %
14.10.2023 01:56 19,1 C 16,1 C 12,2 C 87 % 1001,0 hPa 0,2 l/m 0 min 2 min 0 W/m 19,3 km/h (3 Bft) 97,87 %
14.10.2023 01:58 19,0 C 16,1 C 12,2 C 87 % 1001,0 hPa 0,0 l/m 0 min 2 min 0 W/m 12,9 km/h (3 Bft) 93,62 %
14.10.2023 02:00 18,9 C 16,1 C 12,2 C 88 % 1001,0 hPa 0,0 l/m 0 min 2 min 0 W/m 12,9 km/h (3 Bft) 97,83 %
14.10.2023 02:02 18,8 C 16,1 C 12,2 C 88 % 1001,1 hPa 0,0 l/m 0 min 2 min 0 W/m 19,3 km/h (3 Bft) 95,74 %
14.10.2023 02:04 18,7 C 16,1 C 12,2 C 89 % 1001,0 hPa 0,0 l/m 0 min 2 min 0 W/m 12,9 km/h (3 Bft) 95,65 %
14.10.2023 02:06 18,6 C 16,1 C 12,2 C 89 % 1001,0 hPa 0,0 l/m 0 min 0 min 0 W/m 16,1 km/h (3 Bft) 93,62 %
14.10.2023 02:08 18,5 C 16,1 C 12,2 C 90 % 1001,0 hPa 0,0 l/m 0 min 2 min 0 W/m 6,4 km/h (2 Bft) 97,87 %
14.10.2023 02:10 18,4 C 16,1 C 12,2 C 90 % 1001,0 hPa 0,2 l/m 0 min 2 min 0 W/m 12,9 km/h (3 Bft) 97,83 %
14.10.2023 02:14 18,3 C 16,1 C 12,2 C 90 % 1001,1 hPa 0,0 l/m 0 min 4 min 0 W/m 12,9 km/h (3 Bft) 97,96 %
14.10.2023 02:16 18,2 C 16,1 C 12,2 C 90 % 1001,2 hPa 0,2 l/m 0 min 2 min 0 W/m 12,9 km/h (3 Bft) 93,62 %
14.10.2023 02:18 18,2 C 16,1 C 12,2 C 91 % 1001,3 hPa 0,4 l/m 0 min 2 min 0 W/m 16,1 km/h (3 Bft) 97,87 %
14.10.2023 02:20 18,1 C 16,1 C 12,2 C 91 % 1001,2 hPa 0,2 l/m 0 min 2 min 0 W/m 19,3 km/h (3 Bft) 97,87 %
14.10.2023 02:22 18,0 C 16,1 C 12,2 C 92 % 1001,3 hPa 0,0 l/m 0 min 2 min 0 W/m 16,1 km/h (3 Bft) 93,62 %
14.10.2023 02:24 17,9 C 16,1 C 12,2 C 92 % 1001,4 hPa 0,2 l/m 0 min 2 min 0 W/m 22,5 km/h (4 Bft) 95,65 %
14.10.2023 02:26 17,8 C 16,1 C 12,2 C 92 % 1001,4 hPa 0,0 l/m 0 min 0 min 0 W/m 19,3 km/h (3 Bft) 95,74 %
14.10.2023 02:28 17,8 C 16,1 C 12,2 C 92 % 1001,4 hPa 0,0 l/m 0 min 2 min 0 W/m 19,3 km/h (3 Bft) 95,74 %
14.10.2023 02:30 17,7 C 16,1 C 12,2 C 92 % 1001,3 hPa 0,0 l/m 0 min 0 min 0 W/m 25,7 km/h (4 Bft) 95,74 %
14.10.2023 02:32 17,7 C 16,7 C 12,2 C 93 % 1001,4 hPa 0,0 l/m 0 min 0 min 0 W/m 16,1 km/h (3 Bft) 95,74 %
14.10.2023 02:34 17,6 C 16,7 C 12,2 C 93 % 1001,4 hPa 0,0 l/m 0 min 0 min 0 W/m 19,3 km/h (3 Bft) 95,74 %
14.10.2023 02:36 17,6 C 16,7 C 12,2 C 93 % 1001,5 hPa 0,0 l/m 0 min 0 min 0 W/m 22,5 km/h (4 Bft) 93,48 %
14.10.2023 02:38 17,5 C 16,7 C 12,2 C 93 % 1001,5 hPa 0,0 l/m 0 min 0 min 0 W/m 25,7 km/h (4 Bft) 95,74 %
14.10.2023 02:40 17,5 C 16,7 C 12,2 C 93 % 1001,4 hPa 0,0 l/m 0 min 0 min 0 W/m 19,3 km/h (3 Bft) 93,62 %
14.10.2023 02:42 17,5 C 16,1 C 12,2 C 93 % 1001,5 hPa 0,0 l/m 0 min 0 min 0 W/m 12,9 km/h (3 Bft) 93,62 %
14.10.2023 02:44 17,4 C 16,1 C 12,2 C 93 % 1001,4 hPa 0,0 l/m 0 min 0 min 0 W/m 6,4 km/h (2 Bft) 95,74 %
14.10.2023 02:46 17,4 C 16,1 C 12,2 C 93 % 1001,3 hPa 0,0 l/m 0 min 0 min 0 W/m 12,9 km/h (3 Bft) 92,45 %
14.10.2023 02:48 17,4 C 16,1 C 12,2 C 93 % 1001,4 hPa 0,0 l/m 0 min 0 min 0 W/m 19,3 km/h (3 Bft) 97,22 %
14.10.2023 02:50 17,4 C 16,1 C 12,2 C 93 % 1001,3 hPa 0,0 l/m 0 min 0 min 0 W/m 12,9 km/h (3 Bft) 95,65 %
14.10.2023 02:52 17,4 C 16,7 C 12,2 C 93 % 1001,3 hPa 0,0 l/m 0 min 0 min 0 W/m 19,3 km/h (3 Bft) 95,74 %
14.10.2023 02:54 17,3 C 16,7 C 11,7 C 93 % 1001,4 hPa 0,0 l/m 0 min 0 min 0 W/m 35,4 km/h (5 Bft) 100,00 %
14.10.2023 02:56 17,3 C 16,7 C 11,7 C 93 % 1001,4 hPa 0,0 l/m 0 min 0 min 0 W/m 19,3 km/h (3 Bft) 100,00 %
14.10.2023 02:58 17,4 C 16,7 C 11,7 C 93 % 1001,4 hPa 0,0 l/m 0 min 0 min 0 W/m 19,3 km/h (3 Bft) 97,87 %
14.10.2023 03:00 17,4 C 16,7 C 11,7 C 93 % 1001,3 hPa 0,0 l/m 0 min 0 min 0 W/m 19,3 km/h (3 Bft) 100,00 %
14.10.2023 03:02 17,4 C 16,7 C 11,7 C 93 % 1001,4 hPa 0,0 l/m 0 min 0 min 0 W/m 41,8 km/h (6 Bft) 100,00 %
14.10.2023 03:04 17,4 C 16,7 C 11,7 C 92 % 1001,3 hPa 0,0 l/m 0 min 2 min 0 W/m 41,8 km/h (6 Bft) 97,78 %
14.10.2023 03:06 17,5 C 16,7 C 11,7 C 92 % 1001,4 hPa 0,0 l/m 0 min 2 min 0 W/m 19,3 km/h (3 Bft) 97,87 %
14.10.2023 03:08 17,5 C 16,7 C 11,7 C 92 % 1001,5 hPa 0,0 l/m 0 min 2 min 0 W/m 25,7 km/h (4 Bft) 100,00 %
14.10.2023 03:10 17,6 C 16,7 C 11,7 C 92 % 1001,4 hPa 0,0 l/m 0 min 2 min 0 W/m 19,3 km/h (3 Bft) 100,00 %
14.10.2023 03:12 17,6 C 16,7 C 11,7 C 91 % 1001,5 hPa 0,0 l/m 0 min 2 min 0 W/m 16,1 km/h (3 Bft) 97,87 %
14.10.2023 03:14 17,6 C 16,7 C 11,7 C 91 % 1001,8 hPa 0,0 l/m 0 min 2 min 0 W/m 19,3 km/h (3 Bft) 100,00 %
14.10.2023 03:16 17,6 C 16,1 C 11,7 C 91 % 1002,2 hPa 0,4 l/m 0 min 2 min 0 W/m 22,5 km/h (4 Bft) 100,00 %
14.10.2023 03:18 17,4 C 15,6 C 11,7 C 91 % 1002,4 hPa 1,4 l/m 0 min 2 min 0 W/m 25,7 km/h (4 Bft) 97,87 %
14.10.2023 03:20 17,2 C 14,4 C 11,1 C 91 % 1002,4 hPa 1,6 l/m 0 min 2 min 0 W/m 25,7 km/h (4 Bft) 100,00 %
14.10.2023 03:22 16,8 C 13,9 C 10,6 C 91 % 1002,3 hPa 0,6 l/m 0 min 2 min 0 W/m 16,1 km/h (3 Bft) 100,00 %
14.10.2023 03:24 16,6 C 13,9 C 10,6 C 91 % 1002,5 hPa 0,4 l/m 0 min 2 min 0 W/m 25,7 km/h (4 Bft) 100,00 %
14.10.2023 03:26 16,3 C 13,3 C 10,6 C 91 % 1002,6 hPa 0,2 l/m 0 min 2 min 0 W/m 16,1 km/h (3 Bft) 100,00 %
14.10.2023 03:28 16,0 C 13,3 C 10,0 C 91 % 1002,7 hPa 0,2 l/m 0 min 2 min 0 W/m 25,7 km/h (4 Bft) 100,00 %
14.10.2023 03:30 15,7 C 13,3 C 10,0 C 92 % 1002,7 hPa 0,2 l/m 0 min 2 min 0 W/m 22,5 km/h (4 Bft) 100,00 %
14.10.2023 03:32 15,5 C 13,3 C 10,0 C 92 % 1002,8 hPa 0,0 l/m 0 min 2 min 0 W/m 22,5 km/h (4 Bft) 100,00 %
14.10.2023 03:34 15,3 C 12,8 C 10,0 C 92 % 1002,9 hPa 0,2 l/m 0 min 2 min 0 W/m 22,5 km/h (4 Bft) 100,00 %
14.10.2023 03:36 15,1 C 13,3 C 10,0 C 92 % 1002,9 hPa 0,2 l/m 0 min 2 min 0 W/m 19,3 km/h (3 Bft) 100,00 %
14.10.2023 03:38 15,0 C 12,8 C 9,4 C 93 % 1003,0 hPa 0,2 l/m 0 min 2 min 0 W/m 12,9 km/h (3 Bft) 100,00 %
14.10.2023 03:40 14,9 C 12,8 C 10,0 C 93 % 1003,0 hPa 0,2 l/m 0 min 2 min 0 W/m 12,9 km/h (3 Bft) 100,00 %
14.10.2023 03:42 14,8 C 12,8 C 10,0 C 93 % 1003,0 hPa 0,0 l/m 0 min 2 min 0 W/m 12,9 km/h (3 Bft) 100,00 %
14.10.2023 03:44 14,7 C 12,8 C 9,4 C 93 % 1003,0 hPa 0,2 l/m 0 min 2 min 0 W/m 16,1 km/h (3 Bft) 97,87 %
14.10.2023 03:46 14,6 C 12,8 C 9,4 C 94 % 1003,0 hPa 0,0 l/m 0 min 2 min 0 W/m 16,1 km/h (3 Bft) 100,00 %
14.10.2023 03:48 14,6 C 12,8 C 9,4 C 94 % 1003,0 hPa 0,0 l/m 0 min 2 min 0 W/m 12,9 km/h (3 Bft) 100,00 %
14.10.2023 03:50 14,4 C 12,8 C 9,4 C 94 % 1002,9 hPa 0,0 l/m 0 min 0 min 0 W/m 12,9 km/h (3 Bft) 100,00 %
14.10.2023 03:52 14,4 C 12,8 C 9,4 C 94 % 1003,1 hPa 0,0 l/m 0 min 0 min 0 W/m 16,1 km/h (3 Bft) 100,00 %
14.10.2023 03:54 14,3 C 12,8 C 9,4 C 94 % 1003,2 hPa 0,0 l/m 0 min 2 min 0 W/m 9,7 km/h (2 Bft) 97,87 %
14.10.2023 03:56 14,3 C 12,8 C 9,4 C 94 % 1003,1 hPa 0,2 l/m 0 min 2 min 0 W/m 9,7 km/h (2 Bft) 97,87 %
14.10.2023 03:58 14,3 C 12,8 C 9,4 C 95 % 1003,3 hPa 0,0 l/m 0 min 2 min 0 W/m 9,7 km/h (2 Bft) 93,62 %
14.10.2023 04:00 14,3 C 12,8 C 9,4 C 95 % 1003,4 hPa 0,2 l/m 0 min 2 min 0 W/m 9,7 km/h (2 Bft) 97,87 %
14.10.2023 04:02 14,3 C 12,8 C 10,0 C 95 % 1003,4 hPa 0,2 l/m 0 min 2 min 0 W/m 9,7 km/h (2 Bft) 93,48 %
14.10.2023 04:04 14,3 C 12,8 C 10,0 C 95 % 1003,5 hPa 0,0 l/m 0 min 2 min 0 W/m 3,2 km/h (1 Bft) 94,44 %
14.10.2023 04:08 14,3 C 12,8 C 10,0 C 95 % 1003,6 hPa 0,4 l/m 0 min 4 min 0 W/m 9,7 km/h (2 Bft) 96,91 %
14.10.2023 04:09 14,3 C 12,8 C 9,4 C 95 % 1003,6 hPa 0,0 l/m 0 min 1 min 0 W/m 9,7 km/h (2 Bft) 95,65 %
14.10.2023 04:10 14,3 C 12,8 C 9,4 C 95 % 1003,6 hPa 0,4 l/m 0 min 1 min 0 W/m 9,7 km/h (2 Bft) 100,00 %
14.10.2023 04:14 14,3 C 12,8 C 10,0 C 96 % 1003,7 hPa 0,0 l/m 0 min 4 min 0 W/m 6,4 km/h (2 Bft) 93,62 %
14.10.2023 04:16 14,3 C 12,8 C 10,0 C 96 % 1003,7 hPa 0,0 l/m 0 min 2 min 0 W/m 6,4 km/h (2 Bft) 94,34 %
14.10.2023 04:18 14,3 C 12,8 C 10,0 C 96 % 1003,7 hPa 0,2 l/m 0 min 2 min 0 W/m 16,1 km/h (3 Bft) 93,62 %
14.10.2023 04:20 14,3 C 12,8 C 10,0 C 96 % 1003,8 hPa 0,2 l/m 0 min 2 min 0 W/m 9,7 km/h (2 Bft) 95,74 %
14.10.2023 04:22 14,3 C 12,8 C 10,0 C 96 % 1003,9 hPa 0,2 l/m 0 min 2 min 0 W/m 12,9 km/h (3 Bft) 95,74 %
14.10.2023 04:24 14,3 C 12,8 C 10,0 C 96 % 1003,9 hPa 0,0 l/m 0 min 2 min 0 W/m 12,9 km/h (3 Bft) 95,74 %
14.10.2023 04:26 14,3 C 12,8 C 10,0 C 96 % 1004,0 hPa 0,0 l/m 0 min 2 min 0 W/m 9,7 km/h (2 Bft) 93,62 %
14.10.2023 04:28 14,2 C 12,8 C 10,0 C 96 % 1004,0 hPa 0,0 l/m 0 min 0 min 0 W/m 9,7 km/h (2 Bft) 95,74 %
14.10.2023 04:30 14,2 C 12,8 C 10,0 C 96 % 1004,0 hPa 0,0 l/m 0 min 0 min 0 W/m 9,7 km/h (2 Bft) 95,65 %
14.10.2023 04:32 14,2 C 12,8 C 9,4 C 96 % 1004,1 hPa 0,0 l/m 0 min 0 min 0 W/m 12,9 km/h (3 Bft) 93,62 %
14.10.2023 04:34 14,1 C 12,8 C 9,4 C 96 % 1004,2 hPa 0,0 l/m 0 min 0 min 0 W/m 12,9 km/h (3 Bft) 95,74 %
14.10.2023 04:36 14,1 C 12,8 C 10,0 C 96 % 1004,2 hPa 0,0 l/m 0 min 0 min 0 W/m 6,4 km/h (2 Bft) 95,74 %
14.10.2023 04:38 14,1 C 12,8 C 9,4 C 96 % 1004,3 hPa 0,0 l/m 0 min 0 min 0 W/m 9,7 km/h (2 Bft) 95,74 %
14.10.2023 04:40 14,1 C 12,8 C 9,4 C 97 % 1004,3 hPa 0,0 l/m 0 min 0 min 0 W/m 12,9 km/h (3 Bft) 95,74 %
14.10.2023 04:42 14,1 C 12,8 C 10,0 C 96 % 1004,3 hPa 0,0 l/m 0 min 0 min 0 W/m 9,7 km/h (2 Bft) 97,83 %
14.10.2023 04:44 14,0 C 12,8 C 9,4 C 96 % 1004,4 hPa 0,0 l/m 0 min 0 min 0 W/m 19,3 km/h (3 Bft) 97,87 %
14.10.2023 04:46 13,9 C 12,8 C 9,4 C 96 % 1004,4 hPa 0,0 l/m 0 min 0 min 0 W/m 16,1 km/h (3 Bft) 100,00 %
14.10.2023 04:48 13,9 C 12,8 C 9,4 C 96 % 1004,4 hPa 0,0 l/m 0 min 0 min 0 W/m 22,5 km/h (4 Bft) 97,87 %
14.10.2023 04:50 14,0 C 12,8 C 9,4 C 97 % 1004,5 hPa 0,0 l/m 0 min 0 min 0 W/m 9,7 km/h (2 Bft) 97,87 %
14.10.2023 04:52 13,9 C 12,8 C 9,4 C 97 % 1004,6 hPa 0,0 l/m 0 min 2 min 0 W/m 22,5 km/h (4 Bft) 97,87 %
14.10.2023 04:54 13,9 C 12,8 C 10,0 C 97 % 1004,6 hPa 0,2 l/m 0 min 2 min 0 W/m 9,7 km/h (2 Bft) 100,00 %
14.10.2023 04:56 13,9 C 12,8 C 10,0 C 97 % 1004,8 hPa 0,0 l/m 0 min 0 min 0 W/m 19,3 km/h (3 Bft) 100,00 %
14.10.2023 04:58 13,9 C 12,8 C 9,4 C 97 % 1005,0 hPa 0,0 l/m 0 min 0 min 0 W/m 25,7 km/h (4 Bft) 100,00 %
14.10.2023 05:00 13,9 C 12,8 C 9,4 C 97 % 1005,1 hPa 0,0 l/m 0 min 2 min 0 W/m 12,9 km/h (3 Bft) 50,00 %
14.10.2023 05:02 13,8 C 12,2 C 9,4 C 97 % 1005,2 hPa 0,2 l/m 0 min 2 min 0 W/m 25,7 km/h (4 Bft) 70,97 %
14.10.2023 05:04 13,7 C 12,2 C 8,9 C 97 % 1005,3 hPa 0,0 l/m 0 min 0 min 0 W/m 22,5 km/h (4 Bft) 98,08 %
14.10.2023 05:08 13,4 C 12,2 C 8,9 C 97 % 1005,4 hPa 0,0 l/m 0 min 0 min 0 W/m 22,5 km/h (4 Bft) 97,89 %
14.10.2023 05:09 13,4 C 12,2 C 8,9 C 97 % 1005,5 hPa 0,0 l/m 0 min 0 min 0 W/m 29,0 km/h (5 Bft) 95,83 %
14.10.2023 05:12 13,3 C 12,2 C 8,9 C 97 % 1005,5 hPa 0,0 l/m 0 min 0 min 0 W/m 35,4 km/h (5 Bft) 98,57 %
14.10.2023 05:14 13,3 C 12,2 C 8,9 C 97 % 1005,6 hPa 0,0 l/m 0 min 0 min 0 W/m 19,3 km/h (3 Bft) 97,87 %
14.10.2023 05:16 13,2 C 12,2 C 8,9 C 97 % 1005,9 hPa 0,0 l/m 0 min 0 min 0 W/m 29,0 km/h (5 Bft) 95,74 %
14.10.2023 05:18 13,2 C 12,2 C 8,9 C 97 % 1005,9 hPa 0,0 l/m 0 min 2 min 0 W/m 32,2 km/h (5 Bft) 97,87 %
14.10.2023 05:20 13,1 C 11,7 C 8,3 C 97 % 1006,0 hPa 0,0 l/m 0 min 2 min 0 W/m 35,4 km/h (5 Bft) 97,87 %
14.10.2023 05:22 12,9 C 11,7 C 8,3 C 97 % 1006,1 hPa 0,0 l/m 0 min 2 min 0 W/m 22,5 km/h (4 Bft) 97,83 %
14.10.2023 05:24 12,7 C 11,7 C 7,8 C 97 % 1006,2 hPa 0,0 l/m 0 min 2 min 0 W/m 41,8 km/h (6 Bft) 97,87 %
14.10.2023 05:26 12,6 C 11,1 C 7,8 C 97 % 1006,3 hPa 0,0 l/m 0 min 0 min 0 W/m 25,7 km/h (4 Bft) 95,74 %
14.10.2023 05:28 12,6 C 11,1 C 7,8 C 96 % 1006,3 hPa 0,0 l/m 0 min 0 min 0 W/m 22,5 km/h (4 Bft) 97,87 %
14.10.2023 05:30 12,4 C 11,1 C 7,8 C 96 % 1006,4 hPa 0,0 l/m 0 min 0 min 0 W/m 25,7 km/h (4 Bft) 95,74 %
14.10.2023 05:32 12,4 C 11,1 C 7,8 C 96 % 1006,4 hPa 0,0 l/m 0 min 0 min 0 W/m 16,1 km/h (3 Bft) 97,87 %
14.10.2023 05:34 12,4 C 11,1 C 7,8 C 96 % 1006,5 hPa 0,0 l/m 0 min 0 min 0 W/m 12,9 km/h (3 Bft) 95,74 %
14.10.2023 05:36 12,4 C 11,1 C 7,8 C 96 % 1006,5 hPa 0,0 l/m 0 min 0 min 0 W/m 19,3 km/h (3 Bft) 97,83 %
14.10.2023 05:38 12,3 C 11,1 C 7,8 C 96 % 1006,6 hPa 0,0 l/m 0 min 0 min 0 W/m 12,9 km/h (3 Bft) 95,74 %
14.10.2023 05:40 12,3 C 11,1 C 8,3 C 97 % 1006,5 hPa 0,0 l/m 0 min 0 min 0 W/m 16,1 km/h (3 Bft) 97,87 %
14.10.2023 05:42 12,3 C 11,1 C 8,3 C 97 % 1006,6 hPa 0,0 l/m 0 min 0 min 0 W/m 19,3 km/h (3 Bft) 97,87 %
14.10.2023 05:44 12,3 C 11,7 C 8,3 C 97 % 1006,7 hPa 0,0 l/m 0 min 0 min 0 W/m 9,7 km/h (2 Bft) 97,87 %
14.10.2023 05:46 12,3 C 11,7 C 8,3 C 97 % 1006,7 hPa 0,0 l/m 0 min 0 min 0 W/m 6,4 km/h (2 Bft) 95,74 %
14.10.2023 05:48 12,3 C 11,7 C 8,3 C 97 % 1006,8 hPa 0,0 l/m 0 min 0 min 0 W/m 9,7 km/h (2 Bft) 97,83 %
14.10.2023 05:50 12,4 C 11,7 C 8,3 C 97 % 1006,8 hPa 0,0 l/m 0 min 0 min 0 W/m 9,7 km/h (2 Bft) 97,87 %
14.10.2023 05:52 12,4 C 11,7 C 8,3 C 97 % 1006,9 hPa 0,0 l/m 0 min 0 min 0 W/m 9,7 km/h (2 Bft) 95,74 %
14.10.2023 05:54 12,4 C 11,7 C 8,3 C 97 % 1006,9 hPa 0,0 l/m 0 min 0 min 0 W/m 9,7 km/h (2 Bft) 97,87 %
14.10.2023 05:56 12,4 C 11,7 C 8,3 C 96 % 1007,0 hPa 0,0 l/m 0 min 0 min 0 W/m 9,7 km/h (2 Bft) 97,96 %
14.10.2023 05:58 12,4 C 11,7 C 8,3 C 96 % 1007,1 hPa 0,0 l/m 0 min 0 min 0 W/m 12,9 km/h (3 Bft) 97,87 %
14.10.2023 06:00 12,4 C 11,7 C 8,3 C 96 % 1007,2 hPa 0,0 l/m 0 min 0 min 0 W/m 12,9 km/h (3 Bft) 100,00 %
14.10.2023 06:02 12,4 C 11,7 C 8,3 C 96 % 1007,2 hPa 0,0 l/m 0 min 0 min 0 W/m 9,7 km/h (2 Bft) 95,74 %
14.10.2023 06:04 12,4 C 11,7 C 8,3 C 96 % 1007,4 hPa 0,0 l/m 0 min 0 min 0 W/m 9,7 km/h (2 Bft) 97,73 %
14.10.2023 06:08 12,4 C 11,7 C 8,3 C 96 % 1007,6 hPa 0,0 l/m 0 min 0 min 0 W/m 9,7 km/h (2 Bft) 96,70 %
14.10.2023 06:10 12,4 C 11,7 C 8,3 C 96 % 1007,7 hPa 0,0 l/m 0 min 0 min 0 W/m 6,4 km/h (2 Bft) 95,74 %
14.10.2023 06:12 12,5 C 11,7 C 8,3 C 96 % 1007,7 hPa 0,0 l/m 0 min 0 min 0 W/m 6,4 km/h (2 Bft) 97,87 %
14.10.2023 06:16 12,4 C 11,7 C 8,3 C 96 % 1007,8 hPa 0,0 l/m 0 min 0 min 0 W/m 12,9 km/h (3 Bft) 97,87 %
14.10.2023 06:18 12,4 C 11,7 C 8,3 C 96 % 1007,7 hPa 0,0 l/m 0 min 0 min 0 W/m 16,1 km/h (3 Bft) 95,65 %
14.10.2023 06:20 12,4 C 11,7 C 8,3 C 96 % 1007,8 hPa 0,0 l/m 0 min 0 min 0 W/m 9,7 km/h (2 Bft) 95,74 %
14.10.2023 06:22 12,4 C 11,7 C 8,3 C 96 % 1007,8 hPa 0,0 l/m 0 min 0 min 0 W/m 12,9 km/h (3 Bft) 97,87 %
14.10.2023 06:24 12,4 C 11,7 C 8,3 C 96 % 1007,8 hPa 0,0 l/m 0 min 0 min 0 W/m 9,7 km/h (2 Bft) 97,87 %
14.10.2023 06:26 12,4 C 11,7 C 8,3 C 96 % 1007,9 hPa 0,0 l/m 0 min 0 min 0 W/m 12,9 km/h (3 Bft) 98,00 %
14.10.2023 06:28 12,4 C 11,1 C 8,3 C 96 % 1007,9 hPa 0,0 l/m 0 min 0 min 0 W/m 9,7 km/h (2 Bft) 95,74 %
14.10.2023 06:30 12,4 C 11,1 C 8,3 C 96 % 1008,0 hPa 0,0 l/m 0 min 0 min 0 W/m 16,1 km/h (3 Bft) 95,65 %
14.10.2023 06:32 12,4 C 11,1 C 8,3 C 96 % 1008,0 hPa 0,0 l/m 0 min 0 min 0 W/m 9,7 km/h (2 Bft) 100,00 %
14.10.2023 06:34 12,4 C 11,1 C 8,3 C 95 % 1008,0 hPa 0,0 l/m 0 min 0 min 0 W/m 12,9 km/h (3 Bft) 100,00 %
14.10.2023 06:36 12,3 C 11,1 C 7,8 C 95 % 1008,0 hPa 0,0 l/m 0 min 0 min 0 W/m 16,1 km/h (3 Bft) 97,87 %
14.10.2023 06:38 12,3 C 11,1 C 7,8 C 95 % 1008,0 hPa 0,0 l/m 0 min 0 min 0 W/m 9,7 km/h (2 Bft) 97,14 %
14.10.2023 06:40 12,3 C 11,1 C 8,3 C 95 % 1008,1 hPa 0,0 l/m 0 min 0 min 0 W/m 12,9 km/h (3 Bft) 93,22 %
14.10.2023 06:42 12,3 C 11,1 C 7,8 C 95 % 1008,1 hPa 0,0 l/m 0 min 0 min 0 W/m 16,1 km/h (3 Bft) 97,87 %
14.10.2023 06:44 12,3 C 11,1 C 7,8 C 95 % 1008,2 hPa 0,0 l/m 0 min 0 min 0 W/m 16,1 km/h (3 Bft) 97,87 %
14.10.2023 06:46 12,3 C 11,1 C 7,8 C 95 % 1008,2 hPa 0,0 l/m 0 min 0 min 0 W/m 12,9 km/h (3 Bft) 97,87 %
14.10.2023 06:48 12,2 C 11,1 C 7,8 C 95 % 1008,3 hPa 0,0 l/m 0 min 0 min 0 W/m 16,1 km/h (3 Bft) 97,83 %
14.10.2023 06:50 12,2 C 11,1 C 7,8 C 95 % 1008,4 hPa 0,0 l/m 0 min 0 min 0 W/m 12,9 km/h (3 Bft) 97,87 %
14.10.2023 06:52 12,2 C 11,1 C 7,8 C 95 % 1008,4 hPa 0,0 l/m 0 min 0 min 0 W/m 6,4 km/h (2 Bft) 97,87 %
14.10.2023 06:54 12,2 C 11,1 C 7,8 C 95 % 1008,5 hPa 0,0 l/m 0 min 0 min 0 W/m 12,9 km/h (3 Bft) 97,14 %
14.10.2023 06:56 12,2 C 11,1 C 7,8 C 95 % 1008,6 hPa 0,0 l/m 0 min 0 min 0 W/m 9,7 km/h (2 Bft) 97,87 %
14.10.2023 06:58 12,2 C 11,1 C 7,8 C 95 % 1008,6 hPa 0,0 l/m 0 min 0 min 0 W/m 6,4 km/h (2 Bft) 97,87 %
14.10.2023 07:00 12,1 C 11,1 C 7,8 C 95 % 1008,7 hPa 0,0 l/m 0 min 0 min 0 W/m 9,7 km/h (2 Bft) 97,87 %
14.10.2023 07:02 12,1 C 11,1 C 7,8 C 95 % 1008,7 hPa 0,0 l/m 0 min 0 min 0 W/m 9,7 km/h (2 Bft) 97,87 %
14.10.2023 07:04 12,1 C 11,1 C 7,8 C 95 % 1008,8 hPa 0,0 l/m 0 min 0 min 0 W/m 6,4 km/h (2 Bft) 98,11 %
14.10.2023 07:06 12,1 C 11,1 C 7,8 C 95 % 1008,8 hPa 0,0 l/m 0 min 0 min 0 W/m 12,9 km/h (3 Bft) 97,83 %
14.10.2023 07:08 12,1 C 11,1 C 7,8 C 95 % 1008,9 hPa 0,0 l/m 0 min 0 min 0 W/m 9,7 km/h (2 Bft) 97,87 %
14.10.2023 07:10 12,0 C 11,1 C 7,8 C 95 % 1009,0 hPa 0,0 l/m 0 min 0 min 0 W/m 12,9 km/h (3 Bft) 97,87 %
14.10.2023 07:12 12,0 C 11,1 C 7,8 C 95 % 1009,0 hPa 0,0 l/m 0 min 0 min 0 W/m 12,9 km/h (3 Bft) 97,87 %
14.10.2023 07:14 11,9 C 10,6 C 7,2 C 95 % 1009,1 hPa 0,0 l/m 0 min 0 min 0 W/m 9,7 km/h (2 Bft) 93,62 %
14.10.2023 07:16 11,9 C 10,6 C 7,8 C 95 % 1009,1 hPa 0,0 l/m 0 min 0 min 0 W/m 9,7 km/h (2 Bft) 97,87 %
14.10.2023 07:18 11,9 C 10,6 C 7,8 C 94 % 1009,1 hPa 0,0 l/m 0 min 0 min 0 W/m 9,7 km/h (2 Bft) 97,87 %
14.10.2023 07:20 11,8 C 10,6 C 7,2 C 94 % 1009,3 hPa 0,0 l/m 0 min 0 min 0 W/m 6,4 km/h (2 Bft) 100,00 %
14.10.2023 07:22 11,8 C 10,6 C 7,2 C 94 % 1009,3 hPa 0,0 l/m 0 min 0 min 0 W/m 6,4 km/h (2 Bft) 100,00 %
14.10.2023 07:24 11,8 C 10,6 C 7,8 C 94 % 1009,3 hPa 0,0 l/m 0 min 0 min 0 W/m 9,7 km/h (2 Bft) 100,00 %
14.10.2023 07:26 11,8 C 10,6 C 7,8 C 94 % 1009,3 hPa 0,0 l/m 0 min 0 min 0 W/m 6,4 km/h (2 Bft) 97,83 %
14.10.2023 07:28 11,8 C 10,6 C 7,2 C 94 % 1009,4 hPa 0,0 l/m 0 min 0 min 0 W/m 16,1 km/h (3 Bft) 95,74 %
14.10.2023 07:30 11,7 C 10,6 C 7,2 C 94 % 1009,3 hPa 0,0 l/m 0 min 0 min 0 W/m 3,2 km/h (1 Bft) 100,00 %
14.10.2023 07:32 11,7 C 10,6 C 7,2 C 94 % 1009,3 hPa 0,0 l/m 0 min 0 min 0 W/m 6,4 km/h (2 Bft) 100,00 %
14.10.2023 07:34 11,7 C 10,6 C 7,2 C 94 % 1009,4 hPa 0,0 l/m 0 min 0 min 0 W/m 6,4 km/h (2 Bft) 100,00 %
14.10.2023 07:36 11,7 C 10,6 C 7,2 C 94 % 1009,4 hPa 0,0 l/m 0 min 0 min 0 W/m 6,4 km/h (2 Bft) 97,87 %
14.10.2023 07:38 11,7 C 10,6 C 7,2 C 94 % 1009,4 hPa 0,0 l/m 0 min 0 min 0 W/m 9,7 km/h (2 Bft) 100,00 %
14.10.2023 07:40 11,7 C 10,6 C 7,2 C 94 % 1009,5 hPa 0,0 l/m 0 min 0 min 0 W/m 9,7 km/h (2 Bft) 100,00 %
14.10.2023 07:42 11,7 C 10,6 C 7,2 C 94 % 1009,5 hPa 0,0 l/m 0 min 0 min 0 W/m 9,7 km/h (2 Bft) 100,00 %
14.10.2023 07:44 11,7 C 10,6 C 7,2 C 94 % 1009,5 hPa 0,0 l/m 0 min 0 min 0 W/m 9,7 km/h (2 Bft) 100,00 %
14.10.2023 07:46 11,6 C 10,6 C 7,2 C 94 % 1009,6 hPa 0,0 l/m 0 min 0 min 0 W/m 9,7 km/h (2 Bft) 93,62 %
14.10.2023 07:48 11,6 C 10,6 C 7,2 C 94 % 1009,6 hPa 0,0 l/m 0 min 0 min 0 W/m 19,3 km/h (3 Bft) 97,87 %
14.10.2023 07:50 11,6 C 10,6 C 7,2 C 94 % 1009,7 hPa 0,0 l/m 0 min 0 min 0 W/m 16,1 km/h (3 Bft) 95,74 %
14.10.2023 07:52 11,6 C 10,6 C 7,2 C 94 % 1009,7 hPa 0,0 l/m 0 min 0 min 0 W/m 12,9 km/h (3 Bft) 97,87 %
14.10.2023 07:54 11,5 C 10,6 C 7,2 C 94 % 1009,7 hPa 0,0 l/m 0 min 0 min 0 W/m 12,9 km/h (3 Bft) 94,00 %
14.10.2023 07:56 11,5 C 10,6 C 7,2 C 94 % 1009,8 hPa 0,0 l/m 0 min 0 min 0 W/m 9,7 km/h (2 Bft) 97,87 %
14.10.2023 07:58 11,5 C 10,6 C 7,2 C 94 % 1009,8 hPa 0,0 l/m 0 min 0 min 0 W/m 12,9 km/h (3 Bft) 97,87 %
14.10.2023 08:00 11,5 C 10,6 C 7,2 C 94 % 1009,9 hPa 0,0 l/m 0 min 0 min 1 W/m 12,9 km/h (3 Bft) 93,62 %
14.10.2023 08:02 11,4 C 10,6 C 7,2 C 94 % 1009,9 hPa 0,0 l/m 0 min 0 min 5 W/m 9,7 km/h (2 Bft) 97,87 %
14.10.2023 08:04 11,4 C 10,6 C 7,2 C 94 % 1010,0 hPa 0,0 l/m 0 min 0 min 5 W/m 12,9 km/h (3 Bft) 97,73 %
14.10.2023 08:06 11,4 C 10,6 C 6,7 C 94 % 1010,0 hPa 0,0 l/m 0 min 0 min 6 W/m 12,9 km/h (3 Bft) 95,45 %
14.10.2023 08:08 11,4 C 10,6 C 6,7 C 94 % 1010,1 hPa 0,0 l/m 0 min 0 min 7 W/m 19,3 km/h (3 Bft) 97,87 %
14.10.2023 08:10 11,4 C 10,6 C 7,2 C 94 % 1010,2 hPa 0,0 l/m 0 min 0 min 7 W/m 9,7 km/h (2 Bft) 97,87 %
14.10.2023 08:12 11,4 C 10,6 C 7,2 C 93 % 1010,2 hPa 0,0 l/m 0 min 0 min 9 W/m 6,4 km/h (2 Bft) 98,00 %
14.10.2023 08:14 11,3 C 10,6 C 7,2 C 93 % 1010,3 hPa 0,0 l/m 0 min 0 min 9 W/m 19,3 km/h (3 Bft) 100,00 %
14.10.2023 08:16 11,3 C 10,6 C 7,2 C 93 % 1010,3 hPa 0,0 l/m 0 min 0 min 11 W/m 16,1 km/h (3 Bft) 100,00 %
14.10.2023 08:18 11,3 C 10,6 C 6,7 C 93 % 1010,3 hPa 0,0 l/m 0 min 0 min 11 W/m 9,7 km/h (2 Bft) 95,74 %
14.10.2023 08:20 11,3 C 10,0 C 6,7 C 93 % 1010,5 hPa 0,0 l/m 0 min 0 min 12 W/m 6,4 km/h (2 Bft) 100,00 %
14.10.2023 08:22 11,3 C 10,0 C 6,7 C 93 % 1010,5 hPa 0,0 l/m 0 min 0 min 12 W/m 6,4 km/h (2 Bft) 97,87 %
14.10.2023 08:24 11,3 C 10,0 C 6,7 C 93 % 1010,5 hPa 0,0 l/m 0 min 0 min 14 W/m 6,4 km/h (2 Bft) 95,65 %
14.10.2023 08:26 11,3 C 10,0 C 6,7 C 93 % 1010,5 hPa 0,0 l/m 0 min 0 min 14 W/m 6,4 km/h (2 Bft) 97,87 %
14.10.2023 08:28 11,3 C 10,0 C 6,7 C 93 % 1010,5 hPa 0,0 l/m 0 min 0 min 16 W/m 12,9 km/h (3 Bft) 95,74 %
14.10.2023 08:30 11,2 C 10,0 C 6,7 C 93 % 1010,6 hPa 0,0 l/m 0 min 0 min 16 W/m 16,1 km/h (3 Bft) 95,74 %
14.10.2023 08:32 11,2 C 10,0 C 6,7 C 93 % 1010,6 hPa 0,0 l/m 0 min 0 min 17 W/m 12,9 km/h (3 Bft) 95,74 %
14.10.2023 08:34 11,2 C 10,0 C 6,7 C 93 % 1010,7 hPa 0,0 l/m 0 min 0 min 18 W/m 6,4 km/h (2 Bft) 97,87 %
14.10.2023 08:36 11,2 C 10,0 C 6,7 C 93 % 1010,7 hPa 0,0 l/m 0 min 0 min 18 W/m 12,9 km/h (3 Bft) 93,62 %
14.10.2023 08:38 11,2 C 10,0 C 6,7 C 93 % 1010,7 hPa 0,0 l/m 0 min 0 min 19 W/m 12,9 km/h (3 Bft) 97,87 %
14.10.2023 08:40 11,2 C 10,0 C 6,7 C 93 % 1010,8 hPa 0,0 l/m 0 min 0 min 19 W/m 6,4 km/h (2 Bft) 97,87 %
14.10.2023 08:42 11,2 C 10,0 C 6,7 C 93 % 1010,9 hPa 0,0 l/m 0 min 0 min 19 W/m 12,9 km/h (3 Bft) 95,65 %
14.10.2023 08:44 11,2 C 10,0 C 7,2 C 93 % 1010,9 hPa 0,0 l/m 0 min 0 min 21 W/m 12,9 km/h (3 Bft) 97,87 %
14.10.2023 08:46 11,2 C 10,0 C 7,2 C 93 % 1011,0 hPa 0,0 l/m 0 min 0 min 21 W/m 12,9 km/h (3 Bft) 93,62 %
14.10.2023 08:48 11,1 C 10,0 C 7,2 C 93 % 1010,9 hPa 0,0 l/m 0 min 0 min 22 W/m 12,9 km/h (3 Bft) 91,49 %
14.10.2023 08:50 11,2 C 10,0 C 7,2 C 93 % 1011,0 hPa 0,0 l/m 0 min 0 min 23 W/m 16,1 km/h (3 Bft) 95,74 %
14.10.2023 08:52 11,2 C 10,0 C 7,2 C 93 % 1011,0 hPa 0,0 l/m 0 min 0 min 24 W/m 12,9 km/h (3 Bft) 97,87 %
14.10.2023 08:54 11,2 C 10,0 C 7,2 C 93 % 1011,1 hPa 0,0 l/m 0 min 0 min 25 W/m 12,9 km/h (3 Bft) 95,35 %
14.10.2023 08:56 11,2 C 10,0 C 7,2 C 92 % 1011,2 hPa 0,0 l/m 0 min 0 min 26 W/m 12,9 km/h (3 Bft) 95,83 %
14.10.2023 08:58 11,2 C 10,6 C 7,2 C 93 % 1011,2 hPa 0,0 l/m 0 min 0 min 26 W/m 12,9 km/h (3 Bft) 97,87 %
14.10.2023 09:00 11,2 C 10,6 C 7,2 C 93 % 1011,3 hPa 0,0 l/m 0 min 0 min 27 W/m 12,9 km/h (3 Bft) 95,74 %
14.10.2023 09:02 11,2 C 10,6 C 7,2 C 93 % 1011,3 hPa 0,0 l/m 0 min 0 min 28 W/m 12,9 km/h (3 Bft) 95,65 %
14.10.2023 09:04 11,2 C 10,6 C 7,2 C 93 % 1011,3 hPa 0,0 l/m 0 min 0 min 30 W/m 22,5 km/h (4 Bft) 91,84 %
14.10.2023 09:06 11,2 C 10,6 C 7,2 C 92 % 1011,3 hPa 0,0 l/m 0 min 0 min 30 W/m 6,4 km/h (2 Bft) 95,74 %
14.10.2023 09:08 11,3 C 10,6 C 7,2 C 92 % 1011,4 hPa 0,0 l/m 0 min 0 min 30 W/m 12,9 km/h (3 Bft) 97,87 %
14.10.2023 09:10 11,3 C 10,6 C 7,2 C 92 % 1011,4 hPa 0,0 l/m 0 min 0 min 32 W/m 12,9 km/h (3 Bft) 95,74 %
14.10.2023 09:12 11,3 C 10,6 C 7,2 C 92 % 1011,4 hPa 0,0 l/m 0 min 0 min 32 W/m 12,9 km/h (3 Bft) 95,74 %
14.10.2023 09:14 11,3 C 10,6 C 7,2 C 92 % 1011,4 hPa 0,0 l/m 0 min 0 min 33 W/m 12,9 km/h (3 Bft) 93,62 %
14.10.2023 09:16 11,3 C 10,6 C 7,2 C 92 % 1011,4 hPa 0,0 l/m 0 min 0 min 33 W/m 6,4 km/h (2 Bft) 93,62 %
14.10.2023 09:18 11,3 C 10,6 C 7,2 C 92 % 1011,5 hPa 0,0 l/m 0 min 0 min 34 W/m 16,1 km/h (3 Bft) 95,74 %
14.10.2023 09:20 11,3 C 10,6 C 7,2 C 92 % 1011,6 hPa 0,0 l/m 0 min 0 min 37 W/m 16,1 km/h (3 Bft) 93,48 %
14.10.2023 09:22 11,3 C 11,1 C 7,2 C 92 % 1011,6 hPa 0,0 l/m 0 min 0 min 42 W/m 12,9 km/h (3 Bft) 95,74 %
14.10.2023 09:24 11,3 C 11,1 C 7,2 C 92 % 1011,6 hPa 0,0 l/m 0 min 0 min 48 W/m 12,9 km/h (3 Bft) 95,74 %
14.10.2023 09:26 11,4 C 11,1 C 7,2 C 92 % 1011,7 hPa 0,0 l/m 0 min 0 min 45 W/m 19,3 km/h (3 Bft) 93,62 %
14.10.2023 09:28 11,4 C 11,1 C 7,2 C 92 % 1011,7 hPa 0,0 l/m 0 min 0 min 51 W/m 12,9 km/h (3 Bft) 93,62 %
14.10.2023 09:30 11,4 C 11,1 C 7,8 C 92 % 1011,6 hPa 0,0 l/m 0 min 0 min 58 W/m 9,7 km/h (2 Bft) 95,74 %
14.10.2023 09:32 11,4 C 11,1 C 7,8 C 92 % 1011,7 hPa 0,0 l/m 0 min 0 min 66 W/m 16,1 km/h (3 Bft) 93,62 %
14.10.2023 09:34 11,5 C 11,1 C 7,8 C 92 % 1011,8 hPa 0,0 l/m 0 min 0 min 71 W/m 22,5 km/h (4 Bft) 97,87 %
14.10.2023 09:36 11,5 C 11,7 C 7,8 C 92 % 1011,8 hPa 0,0 l/m 0 min 0 min 63 W/m 16,1 km/h (3 Bft) 93,62 %
14.10.2023 09:38 11,6 C 11,7 C 7,8 C 91 % 1011,8 hPa 0,0 l/m 0 min 0 min 64 W/m 12,9 km/h (3 Bft) 95,65 %
14.10.2023 09:40 11,6 C 11,7 C 7,8 C 91 % 1011,8 hPa 0,0 l/m 0 min 0 min 84 W/m 9,7 km/h (2 Bft) 91,49 %
14.10.2023 09:42 11,6 C 11,7 C 7,8 C 91 % 1011,9 hPa 0,0 l/m 0 min 0 min 100 W/m 6,4 km/h (2 Bft) 95,74 %
14.10.2023 09:44 11,7 C 11,7 C 7,8 C 91 % 1011,9 hPa 0,0 l/m 0 min 0 min 86 W/m 19,3 km/h (3 Bft) 97,87 %
14.10.2023 09:46 11,7 C 11,7 C 7,8 C 91 % 1012,0 hPa 0,0 l/m 0 min 0 min 64 W/m 16,1 km/h (3 Bft) 97,87 %
14.10.2023 09:48 11,7 C 11,7 C 7,8 C 91 % 1011,9 hPa 0,0 l/m 0 min 0 min 56 W/m 9,7 km/h (2 Bft) 97,87 %
14.10.2023 09:50 11,8 C 11,7 C 7,8 C 91 % 1012,0 hPa 0,0 l/m 0 min 0 min 54 W/m 16,1 km/h (3 Bft) 97,87 %
14.10.2023 09:52 11,8 C 11,7 C 7,8 C 91 % 1012,0 hPa 0,0 l/m 0 min 0 min 38 W/m 12,9 km/h (3 Bft) 97,87 %
14.10.2023 09:54 11,7 C 11,1 C 7,8 C 90 % 1012,1 hPa 0,0 l/m 0 min 0 min 35 W/m 12,9 km/h (3 Bft) 95,74 %
14.10.2023 09:56 11,7 C 11,1 C 7,8 C 90 % 1012,1 hPa 0,0 l/m 0 min 0 min 40 W/m 16,1 km/h (3 Bft) 97,83 %
14.10.2023 09:58 11,7 C 11,1 C 7,8 C 90 % 1012,2 hPa 0,0 l/m 0 min 0 min 47 W/m 12,9 km/h (3 Bft) 100,00 %
14.10.2023 10:00 11,7 C 11,7 C 7,8 C 90 % 1012,2 hPa 0,0 l/m 0 min 0 min 58 W/m 12,9 km/h (3 Bft) 100,00 %
14.10.2023 10:02 11,7 C 11,7 C 7,8 C 90 % 1012,2 hPa 0,0 l/m 0 min 0 min 57 W/m 16,1 km/h (3 Bft) 100,00 %
14.10.2023 10:04 11,7 C 11,7 C 7,8 C 90 % 1012,2 hPa 0,0 l/m 0 min 0 min 52 W/m 22,5 km/h (4 Bft) 100,00 %
14.10.2023 10:08 11,8 C 11,7 C 7,8 C 89 % 1012,3 hPa 0,0 l/m 0 min 0 min 98 W/m 16,1 km/h (3 Bft) 100,00 %
14.10.2023 10:09 11,8 C 11,7 C 7,8 C 89 % 1012,3 hPa 0,0 l/m 0 min 0 min 79 W/m 16,1 km/h (3 Bft) 100,00 %
14.10.2023 10:10 11,8 C 11,7 C 7,8 C 90 % 1012,3 hPa 0,0 l/m 0 min 0 min 100 W/m 16,1 km/h (3 Bft) 100,00 %
14.10.2023 10:14 11,9 C 12,2 C 8,3 C 89 % 1012,3 hPa 0,0 l/m 0 min 0 min 106 W/m 9,7 km/h (2 Bft) 97,87 %
14.10.2023 10:16 12,0 C 12,2 C 8,3 C 89 % 1012,3 hPa 0,0 l/m 0 min 0 min 105 W/m 16,1 km/h (3 Bft) 97,87 %
14.10.2023 10:18 12,1 C 12,2 C 8,3 C 89 % 1012,3 hPa 0,0 l/m 0 min 0 min 136 W/m 12,9 km/h (3 Bft) 100,00 %
14.10.2023 10:20 12,1 C 12,2 C 8,9 C 89 % 1012,4 hPa 0,0 l/m 0 min 0 min 149 W/m 12,9 km/h (3 Bft) 100,00 %
14.10.2023 10:22 12,2 C 12,2 C 8,9 C 89 % 1012,4 hPa 0,0 l/m 0 min 0 min 147 W/m 12,9 km/h (3 Bft) 100,00 %
14.10.2023 10:24 12,2 C 12,2 C 8,9 C 89 % 1012,4 hPa 0,0 l/m 0 min 0 min 131 W/m 19,3 km/h (3 Bft) 100,00 %
14.10.2023 10:26 12,2 C 12,2 C 8,9 C 88 % 1012,5 hPa 0,0 l/m 0 min 0 min 138 W/m 19,3 km/h (3 Bft) 100,00 %
14.10.2023 10:28 12,3 C 12,2 C 8,9 C 88 % 1012,6 hPa 0,0 l/m 0 min 0 min 130 W/m 19,3 km/h (3 Bft) 100,00 %
14.10.2023 10:30 12,3 C 12,2 C 8,9 C 88 % 1012,6 hPa 0,0 l/m 0 min 0 min 119 W/m 6,4 km/h (2 Bft) 100,00 %
14.10.2023 10:32 12,3 C 12,2 C 8,9 C 88 % 1012,6 hPa 0,0 l/m 0 min 0 min 113 W/m 19,3 km/h (3 Bft) 100,00 %
14.10.2023 10:34 12,3 C 12,2 C 8,9 C 88 % 1012,6 hPa 0,0 l/m 0 min 0 min 113 W/m 16,1 km/h (3 Bft) 100,00 %
14.10.2023 10:36 12,3 C 12,2 C 8,9 C 87 % 1012,7 hPa 0,0 l/m 0 min 0 min 101 W/m 12,9 km/h (3 Bft) 100,00 %
14.10.2023 10:38 12,3 C 12,2 C 8,9 C 87 % 1012,7 hPa 0,0 l/m 0 min 0 min 72 W/m 16,1 km/h (3 Bft) 100,00 %
14.10.2023 10:40 12,3 C 12,2 C 8,9 C 87 % 1012,8 hPa 0,0 l/m 0 min 0 min 59 W/m 19,3 km/h (3 Bft) 100,00 %
14.10.2023 10:42 12,3 C 12,2 C 8,9 C 86 % 1012,8 hPa 0,0 l/m 0 min 0 min 64 W/m 16,1 km/h (3 Bft) 100,00 %
14.10.2023 10:44 12,3 C 12,2 C 8,9 C 86 % 1012,9 hPa 0,0 l/m 0 min 0 min 80 W/m 9,7 km/h (2 Bft) 100,00 %
14.10.2023 10:46 12,3 C 12,2 C 8,9 C 86 % 1012,9 hPa 0,0 l/m 0 min 0 min 90 W/m 16,1 km/h (3 Bft) 100,00 %
14.10.2023 10:48 12,4 C 12,2 C 8,9 C 86 % 1013,0 hPa 0,0 l/m 0 min 0 min 70 W/m 12,9 km/h (3 Bft) 100,00 %
14.10.2023 10:50 12,4 C 12,2 C 8,9 C 86 % 1012,9 hPa 0,0 l/m 0 min 0 min 67 W/m 16,1 km/h (3 Bft) 100,00 %
14.10.2023 10:52 12,4 C 12,2 C 8,9 C 86 % 1012,9 hPa 0,0 l/m 0 min 0 min 90 W/m 19,3 km/h (3 Bft) 100,00 %
14.10.2023 10:54 12,5 C 12,8 C 8,9 C 86 % 1013,0 hPa 0,0 l/m 0 min 0 min 130 W/m 12,9 km/h (3 Bft) 100,00 %
14.10.2023 10:56 12,6 C 12,8 C 8,9 C 86 % 1013,0 hPa 0,0 l/m 0 min 0 min 190 W/m 12,9 km/h (3 Bft) 100,00 %
14.10.2023 10:58 12,6 C 12,8 C 8,9 C 86 % 1013,0 hPa 0,0 l/m 0 min 0 min 150 W/m 19,3 km/h (3 Bft) 100,00 %
14.10.2023 11:00 12,6 C 12,8 C 8,9 C 85 % 1013,0 hPa 0,0 l/m 0 min 0 min 77 W/m 19,3 km/h (3 Bft) 100,00 %
14.10.2023 11:02 12,7 C 12,8 C 8,9 C 85 % 1013,0 hPa 0,0 l/m 0 min 0 min 70 W/m 16,1 km/h (3 Bft) 100,00 %
14.10.2023 11:04 12,7 C 12,8 C 8,9 C 85 % 1013,0 hPa 0,0 l/m 0 min 0 min 83 W/m 19,3 km/h (3 Bft) 98,08 %
14.10.2023 11:08 12,8 C 13,3 C 8,9 C 85 % 1013,0 hPa 0,0 l/m 0 min 0 min 116 W/m 16,1 km/h (3 Bft) 100,00 %
14.10.2023 11:09 12,8 C 13,3 C 9,4 C 85 % 1013,1 hPa 0,0 l/m 0 min 0 min 99 W/m 12,9 km/h (3 Bft) 100,00 %
14.10.2023 11:10 12,8 C 13,3 C 9,4 C 85 % 1013,1 hPa 0,0 l/m 0 min 0 min 122 W/m 12,9 km/h (3 Bft) 100,00 %
14.10.2023 11:14 12,9 C 13,9 C 9,4 C 84 % 1013,1 hPa 0,0 l/m 0 min 0 min 178 W/m 12,9 km/h (3 Bft) 100,00 %
14.10.2023 11:16 13,1 C 13,9 C 9,4 C 84 % 1013,2 hPa 0,0 l/m 2 min 0 min 225 W/m 12,9 km/h (3 Bft) 100,00 %
14.10.2023 11:18 13,1 C 13,9 C 9,4 C 85 % 1013,2 hPa 0,0 l/m 2 min 0 min 247 W/m 19,3 km/h (3 Bft) 97,87 %
14.10.2023 11:20 13,1 C 13,3 C 9,4 C 84 % 1013,2 hPa 0,0 l/m 0 min 0 min 114 W/m 19,3 km/h (3 Bft) 97,87 %
14.10.2023 11:22 13,1 C 13,9 C 9,4 C 83 % 1013,2 hPa 0,0 l/m 0 min 0 min 113 W/m 19,3 km/h (3 Bft) 95,74 %
14.10.2023 11:24 13,1 C 13,9 C 9,4 C 83 % 1013,3 hPa 0,0 l/m 0 min 0 min 186 W/m 19,3 km/h (3 Bft) 95,74 %
14.10.2023 11:26 13,1 C 13,9 C 9,4 C 82 % 1013,2 hPa 0,0 l/m 0 min 0 min 140 W/m 12,9 km/h (3 Bft) 97,83 %
14.10.2023 11:28 13,1 C 15,0 C 9,4 C 82 % 1013,3 hPa 0,0 l/m 2 min 0 min 261 W/m 16,1 km/h (3 Bft) 97,87 %
14.10.2023 11:30 13,2 C 15,6 C 9,4 C 83 % 1013,3 hPa 0,0 l/m 2 min 0 min 291 W/m 12,9 km/h (3 Bft) 93,62 %
14.10.2023 11:32 13,2 C 15,6 C 9,4 C 82 % 1013,3 hPa 0,0 l/m 2 min 0 min 284 W/m 9,7 km/h (2 Bft) 95,74 %
14.10.2023 11:34 13,2 C 15,6 C 9,4 C 82 % 1013,3 hPa 0,0 l/m 2 min 0 min 244 W/m 22,5 km/h (4 Bft) 93,62 %
14.10.2023 11:36 13,1 C 15,0 C 9,4 C 82 % 1013,3 hPa 0,0 l/m 0 min 0 min 204 W/m 19,3 km/h (3 Bft) 95,74 %
14.10.2023 11:38 13,1 C 15,0 C 9,4 C 81 % 1013,3 hPa 0,0 l/m 0 min 0 min 199 W/m 12,9 km/h (3 Bft) 95,74 %
14.10.2023 11:40 13,1 C 15,0 C 9,4 C 81 % 1013,4 hPa 0,0 l/m 2 min 0 min 349 W/m 16,1 km/h (3 Bft) 93,62 %
14.10.2023 11:42 13,2 C 15,6 C 10,0 C 81 % 1013,4 hPa 0,0 l/m 2 min 0 min 402 W/m 19,3 km/h (3 Bft) 93,62 %
14.10.2023 11:44 13,2 C 16,1 C 10,6 C 80 % 1013,4 hPa 0,0 l/m 2 min 0 min 439 W/m 16,1 km/h (3 Bft) 93,48 %
14.10.2023 11:46 13,3 C 16,1 C 10,6 C 80 % 1013,4 hPa 0,0 l/m 2 min 0 min 421 W/m 16,1 km/h (3 Bft) 95,74 %
14.10.2023 11:48 13,4 C 16,1 C 10,6 C 81 % 1013,4 hPa 0,0 l/m 2 min 0 min 286 W/m 12,9 km/h (3 Bft) 95,74 %
14.10.2023 11:50 13,5 C 15,6 C 10,6 C 81 % 1013,5 hPa 0,0 l/m 0 min 0 min 130 W/m 12,9 km/h (3 Bft) 95,74 %
14.10.2023 11:52 13,6 C 15,6 C 10,6 C 80 % 1013,4 hPa 0,0 l/m 0 min 0 min 121 W/m 22,5 km/h (4 Bft) 93,62 %
14.10.2023 11:54 13,7 C 15,0 C 10,6 C 80 % 1013,4 hPa 0,0 l/m 0 min 0 min 132 W/m 19,3 km/h (3 Bft) 95,74 %
14.10.2023 11:56 13,7 C 14,4 C 10,6 C 79 % 1013,4 hPa 0,0 l/m 0 min 0 min 120 W/m 19,3 km/h (3 Bft) 97,92 %
14.10.2023 11:58 13,6 C 13,9 C 10,6 C 79 % 1013,5 hPa 0,0 l/m 0 min 0 min 108 W/m 16,1 km/h (3 Bft) 91,30 %
14.10.2023 12:00 13,6 C 13,9 C 10,6 C 79 % 1013,6 hPa 0,0 l/m 0 min 0 min 92 W/m 16,1 km/h (3 Bft) 95,74 %
14.10.2023 12:02 13,6 C 13,3 C 10,0 C 79 % 1013,6 hPa 0,0 l/m 0 min 0 min 80 W/m 12,9 km/h (3 Bft) 93,62 %
14.10.2023 12:04 13,5 C 13,3 C 10,0 C 79 % 1013,6 hPa 0,0 l/m 0 min 0 min 84 W/m 16,1 km/h (3 Bft) 95,74 %
14.10.2023 12:08 13,5 C 13,3 C 10,0 C 79 % 1013,6 hPa 0,0 l/m 0 min 0 min 135 W/m 19,3 km/h (3 Bft) 95,70 %
14.10.2023 12:10 13,5 C 13,3 C 10,0 C 79 % 1013,7 hPa 0,0 l/m 0 min 0 min 121 W/m 16,1 km/h (3 Bft) 93,62 %
14.10.2023 12:12 13,6 C 13,3 C 10,0 C 79 % 1013,7 hPa 0,0 l/m 0 min 0 min 96 W/m 16,1 km/h (3 Bft) 93,62 %
14.10.2023 12:16 13,7 C 13,3 C 10,0 C 79 % 1013,6 hPa 0,0 l/m 0 min 0 min 101 W/m 22,5 km/h (4 Bft) 95,70 %
14.10.2023 12:18 13,7 C 13,9 C 10,0 C 79 % 1013,7 hPa 0,0 l/m 0 min 0 min 131 W/m 16,1 km/h (3 Bft) 95,74 %
14.10.2023 12:20 13,8 C 13,9 C 10,0 C 79 % 1013,7 hPa 0,0 l/m 0 min 0 min 96 W/m 19,3 km/h (3 Bft) 97,87 %
14.10.2023 12:22 13,8 C 13,9 C 10,0 C 78 % 1013,7 hPa 0,0 l/m 0 min 0 min 97 W/m 12,9 km/h (3 Bft) 95,74 %
14.10.2023 12:24 13,8 C 13,9 C 10,0 C 78 % 1013,7 hPa 0,0 l/m 0 min 0 min 96 W/m 22,5 km/h (4 Bft) 97,87 %
14.10.2023 12:26 13,9 C 13,9 C 10,0 C 78 % 1013,7 hPa 0,0 l/m 0 min 0 min 118 W/m 12,9 km/h (3 Bft) 97,87 %
14.10.2023 12:28 13,9 C 13,9 C 10,0 C 78 % 1013,7 hPa 0,0 l/m 0 min 0 min 132 W/m 22,5 km/h (4 Bft) 97,87 %
14.10.2023 12:30 14,0 C 13,9 C 10,0 C 77 % 1013,7 hPa 0,0 l/m 0 min 0 min 137 W/m 19,3 km/h (3 Bft) 97,87 %
14.10.2023 12:32 13,9 C 13,9 C 10,0 C 75 % 1013,7 hPa 0,0 l/m 0 min 0 min 152 W/m 19,3 km/h (3 Bft) 93,48 %
14.10.2023 12:34 13,9 C 13,9 C 10,0 C 75 % 1013,7 hPa 0,0 l/m 0 min 0 min 160 W/m 22,5 km/h (4 Bft) 95,74 %
14.10.2023 12:36 13,9 C 13,9 C 10,0 C 75 % 1013,7 hPa 0,0 l/m 0 min 0 min 188 W/m 25,7 km/h (4 Bft) 97,87 %
14.10.2023 12:38 14,1 C 14,4 C 10,6 C 75 % 1013,8 hPa 0,0 l/m 0 min 0 min 173 W/m 12,9 km/h (3 Bft) 97,87 %
14.10.2023 12:40 14,1 C 14,4 C 10,6 C 75 % 1013,8 hPa 0,0 l/m 0 min 0 min 141 W/m 25,7 km/h (4 Bft) 95,74 %
14.10.2023 12:42 14,3 C 13,9 C 10,6 C 75 % 1013,8 hPa 0,0 l/m 0 min 0 min 122 W/m 22,5 km/h (4 Bft) 97,87 %
14.10.2023 12:44 14,3 C 13,9 C 10,6 C 74 % 1013,7 hPa 0,0 l/m 0 min 0 min 87 W/m 38,6 km/h (5 Bft) 97,87 %
14.10.2023 12:46 14,2 C 13,9 C 10,0 C 74 % 1013,8 hPa 0,0 l/m 0 min 0 min 111 W/m 16,1 km/h (3 Bft) 95,74 %
14.10.2023 12:48 14,1 C 13,3 C 10,0 C 73 % 1013,8 hPa 0,0 l/m 0 min 0 min 110 W/m 19,3 km/h (3 Bft) 95,74 %
14.10.2023 12:50 14,1 C 13,9 C 10,0 C 74 % 1013,8 hPa 0,0 l/m 0 min 0 min 108 W/m 12,9 km/h (3 Bft) 97,87 %
14.10.2023 12:52 14,1 C 13,9 C 10,0 C 74 % 1013,8 hPa 0,0 l/m 0 min 0 min 106 W/m 22,5 km/h (4 Bft) 97,83 %
14.10.2023 12:54 14,1 C 13,9 C 10,0 C 73 % 1013,9 hPa 0,0 l/m 0 min 0 min 101 W/m 25,7 km/h (4 Bft) 95,92 %
14.10.2023 12:56 14,1 C 13,9 C 10,0 C 73 % 1013,9 hPa 0,0 l/m 0 min 0 min 99 W/m 16,1 km/h (3 Bft) 97,87 %
14.10.2023 12:58 14,1 C 13,9 C 10,0 C 73 % 1014,0 hPa 0,0 l/m 0 min 0 min 71 W/m 19,3 km/h (3 Bft) 97,87 %
14.10.2023 13:00 14,1 C 13,9 C 10,0 C 73 % 1014,0 hPa 0,0 l/m 0 min 0 min 64 W/m 12,9 km/h (3 Bft) 100,00 %
14.10.2023 13:02 14,1 C 13,9 C 10,0 C 73 % 1014,0 hPa 0,0 l/m 0 min 0 min 63 W/m 16,1 km/h (3 Bft) 100,00 %
14.10.2023 13:04 14,2 C 13,9 C 10,0 C 73 % 1014,0 hPa 0,0 l/m 0 min 0 min 64 W/m 16,1 km/h (3 Bft) 97,78 %
14.10.2023 13:06 14,3 C 13,9 C 10,0 C 74 % 1014,0 hPa 0,0 l/m 0 min 0 min 68 W/m 19,3 km/h (3 Bft) 100,00 %
14.10.2023 13:08 14,3 C 13,9 C 10,0 C 73 % 1014,0 hPa 0,0 l/m 0 min 0 min 57 W/m 12,9 km/h (3 Bft) 97,87 %
14.10.2023 13:10 14,3 C 13,9 C 10,0 C 72 % 1014,1 hPa 0,0 l/m 0 min 0 min 71 W/m 16,1 km/h (3 Bft) 95,65 %
14.10.2023 13:12 14,3 C 13,9 C 10,0 C 72 % 1013,9 hPa 0,0 l/m 0 min 0 min 64 W/m 16,1 km/h (3 Bft) 100,00 %
14.10.2023 13:14 14,3 C 13,9 C 10,0 C 72 % 1013,9 hPa 0,0 l/m 0 min 0 min 60 W/m 19,3 km/h (3 Bft) 100,00 %
14.10.2023 13:16 14,3 C 13,9 C 10,0 C 73 % 1013,9 hPa 0,0 l/m 0 min 0 min 65 W/m 32,2 km/h (5 Bft) 100,00 %
14.10.2023 13:18 14,3 C 13,9 C 10,0 C 71 % 1013,9 hPa 0,0 l/m 0 min 0 min 81 W/m 19,3 km/h (3 Bft) 100,00 %
14.10.2023 13:20 14,3 C 13,9 C 10,6 C 71 % 1013,9 hPa 0,0 l/m 0 min 0 min 89 W/m 16,1 km/h (3 Bft) 97,87 %
14.10.2023 13:22 14,3 C 14,4 C 10,6 C 72 % 1013,9 hPa 0,0 l/m 0 min 0 min 95 W/m 12,9 km/h (3 Bft) 95,74 %
14.10.2023 13:24 14,4 C 14,4 C 10,6 C 72 % 1014,0 hPa 0,0 l/m 0 min 0 min 108 W/m 12,9 km/h (3 Bft) 95,74 %
14.10.2023 13:26 14,5 C 14,4 C 10,6 C 72 % 1014,0 hPa 0,0 l/m 0 min 0 min 126 W/m 19,3 km/h (3 Bft) 97,87 %
14.10.2023 13:28 14,6 C 14,4 C 10,6 C 72 % 1013,9 hPa 0,0 l/m 0 min 0 min 139 W/m 12,9 km/h (3 Bft) 97,83 %
14.10.2023 13:30 14,6 C 14,4 C 10,6 C 72 % 1013,9 hPa 0,0 l/m 0 min 0 min 131 W/m 19,3 km/h (3 Bft) 95,74 %
14.10.2023 13:32 14,6 C 14,4 C 10,6 C 72 % 1013,9 hPa 0,0 l/m 0 min 0 min 112 W/m 12,9 km/h (3 Bft) 97,87 %
14.10.2023 13:34 14,7 C 14,4 C 10,6 C 72 % 1013,9 hPa 0,0 l/m 0 min 0 min 111 W/m 12,9 km/h (3 Bft) 97,87 %
14.10.2023 13:36 14,7 C 14,4 C 10,6 C 71 % 1014,0 hPa 0,0 l/m 0 min 0 min 122 W/m 19,3 km/h (3 Bft) 97,87 %
14.10.2023 13:38 14,7 C 14,4 C 10,6 C 71 % 1014,0 hPa 0,0 l/m 0 min 0 min 151 W/m 12,9 km/h (3 Bft) 95,74 %
14.10.2023 13:40 14,8 C 14,4 C 11,1 C 71 % 1014,0 hPa 0,0 l/m 0 min 0 min 195 W/m 19,3 km/h (3 Bft) 97,87 %
14.10.2023 13:42 14,8 C 15,0 C 11,1 C 71 % 1014,0 hPa 0,0 l/m 0 min 0 min 181 W/m 12,9 km/h (3 Bft) 97,87 %
14.10.2023 13:44 14,8 C 14,4 C 10,6 C 70 % 1014,0 hPa 0,0 l/m 0 min 0 min 161 W/m 22,5 km/h (4 Bft) 97,87 %
14.10.2023 13:46 14,8 C 15,0 C 11,1 C 70 % 1014,1 hPa 0,0 l/m 0 min 0 min 192 W/m 25,7 km/h (4 Bft) 97,83 %
14.10.2023 13:48 14,9 C 15,0 C 11,1 C 70 % 1014,1 hPa 0,0 l/m 0 min 0 min 186 W/m 22,5 km/h (4 Bft) 95,74 %
14.10.2023 13:50 15,0 C 15,0 C 11,1 C 70 % 1014,1 hPa 0,0 l/m 0 min 0 min 156 W/m 12,9 km/h (3 Bft) 95,74 %
14.10.2023 13:52 15,1 C 15,0 C 11,1 C 69 % 1014,1 hPa 0,0 l/m 0 min 0 min 155 W/m 19,3 km/h (3 Bft) 95,45 %
14.10.2023 13:54 15,1 C 15,0 C 11,1 C 69 % 1014,1 hPa 0,0 l/m 0 min 0 min 174 W/m 22,5 km/h (4 Bft) 100,00 %
14.10.2023 13:56 15,1 C 15,0 C 11,1 C 69 % 1014,1 hPa 0,0 l/m 2 min 0 min 274 W/m 19,3 km/h (3 Bft) 100,00 %
14.10.2023 13:58 15,1 C 15,0 C 11,1 C 66 % 1014,1 hPa 0,0 l/m 2 min 0 min 338 W/m 29,0 km/h (5 Bft) 97,87 %
14.10.2023 14:00 15,1 C 15,0 C 10,6 C 66 % 1014,1 hPa 0,0 l/m 2 min 0 min 263 W/m 16,1 km/h (3 Bft) 100,00 %
14.10.2023 14:02 15,0 C 14,4 C 10,6 C 66 % 1014,1 hPa 0,0 l/m 0 min 0 min 102 W/m 32,2 km/h (5 Bft) 100,00 %
14.10.2023 14:04 14,8 C 14,4 C 10,6 C 64 % 1014,1 hPa 0,0 l/m 0 min 0 min 117 W/m 19,3 km/h (3 Bft) 100,00 %
14.10.2023 14:06 14,7 C 13,9 C 10,0 C 65 % 1014,1 hPa 0,0 l/m 0 min 0 min 76 W/m 19,3 km/h (3 Bft) 100,00 %
14.10.2023 14:08 14,6 C 13,9 C 10,0 C 65 % 1014,2 hPa 0,0 l/m 0 min 0 min 152 W/m 25,7 km/h (4 Bft) 100,00 %
14.10.2023 14:10 14,5 C 13,9 C 10,0 C 66 % 1014,2 hPa 0,0 l/m 0 min 0 min 122 W/m 12,9 km/h (3 Bft) 100,00 %
14.10.2023 14:12 14,4 C 13,3 C 10,0 C 66 % 1014,2 hPa 0,0 l/m 0 min 0 min 68 W/m 19,3 km/h (3 Bft) 100,00 %
14.10.2023 14:14 14,3 C 13,3 C 10,0 C 67 % 1014,2 hPa 0,0 l/m 0 min 0 min 74 W/m 9,7 km/h (2 Bft) 95,74 %
14.10.2023 14:16 14,3 C 13,3 C 10,0 C 67 % 1014,2 hPa 0,0 l/m 0 min 0 min 75 W/m 16,1 km/h (3 Bft) 95,74 %
14.10.2023 14:18 14,2 C 13,3 C 10,0 C 68 % 1014,2 hPa 0,0 l/m 0 min 0 min 76 W/m 19,3 km/h (3 Bft) 97,83 %
14.10.2023 14:20 14,3 C 13,9 C 10,0 C 68 % 1014,1 hPa 0,0 l/m 2 min 0 min 556 W/m 12,9 km/h (3 Bft) 97,87 %
14.10.2023 14:22 14,3 C 14,4 C 10,0 C 69 % 1014,2 hPa 0,0 l/m 2 min 0 min 604 W/m 16,1 km/h (3 Bft) 95,74 %
14.10.2023 14:24 14,3 C 14,4 C 10,6 C 68 % 1014,2 hPa 0,0 l/m 2 min 0 min 610 W/m 29,0 km/h (5 Bft) 95,74 %
14.10.2023 14:26 14,6 C 14,4 C 10,6 C 67 % 1014,2 hPa 0,0 l/m 2 min 0 min 587 W/m 19,3 km/h (3 Bft) 97,87 %
14.10.2023 14:28 14,7 C 15,0 C 10,6 C 67 % 1014,2 hPa 0,0 l/m 2 min 0 min 589 W/m 16,1 km/h (3 Bft) 97,87 %
14.10.2023 14:30 14,8 C 15,0 C 10,6 C 67 % 1014,2 hPa 0,0 l/m 2 min 0 min 590 W/m 19,3 km/h (3 Bft) 95,74 %
14.10.2023 14:32 14,9 C 15,0 C 10,6 C 67 % 1014,1 hPa 0,0 l/m 2 min 0 min 578 W/m 16,1 km/h (3 Bft) 97,87 %
14.10.2023 14:34 15,1 C 15,0 C 11,1 C 66 % 1014,2 hPa 0,0 l/m 2 min 0 min 592 W/m 22,5 km/h (4 Bft) 95,65 %
14.10.2023 14:36 15,1 C 14,4 C 10,6 C 66 % 1014,2 hPa 0,0 l/m 2 min 0 min 260 W/m 16,1 km/h (3 Bft) 95,74 %
14.10.2023 14:38 15,0 C 14,4 C 10,6 C 66 % 1014,2 hPa 0,0 l/m 0 min 0 min 207 W/m 22,5 km/h (4 Bft) 97,87 %
14.10.2023 14:40 14,9 C 14,4 C 10,6 C 66 % 1014,2 hPa 0,0 l/m 2 min 0 min 485 W/m 16,1 km/h (3 Bft) 97,87 %
14.10.2023 14:42 14,9 C 14,4 C 10,6 C 66 % 1014,3 hPa 0,0 l/m 0 min 0 min 207 W/m 16,1 km/h (3 Bft) 97,87 %
14.10.2023 14:44 14,8 C 14,4 C 10,6 C 67 % 1014,3 hPa 0,0 l/m 0 min 0 min 93 W/m 19,3 km/h (3 Bft) 97,87 %
14.10.2023 14:46 14,6 C 13,3 C 9,4 C 70 % 1014,5 hPa 0,0 l/m 0 min 2 min 87 W/m 25,7 km/h (4 Bft) 95,74 %
14.10.2023 14:48 14,3 C 12,8 C 8,9 C 73 % 1014,6 hPa 0,0 l/m 0 min 2 min 98 W/m 38,6 km/h (5 Bft) 95,74 %
14.10.2023 14:50 14,0 C 12,2 C 8,3 C 74 % 1014,5 hPa 0,0 l/m 0 min 2 min 92 W/m 16,1 km/h (3 Bft) 95,74 %
14.10.2023 14:52 13,7 C 12,2 C 8,3 C 76 % 1014,4 hPa 0,0 l/m 0 min 2 min 66 W/m 19,3 km/h (3 Bft) 97,83 %
14.10.2023 14:54 13,6 C 12,2 C 8,3 C 77 % 1014,4 hPa 0,0 l/m 0 min 0 min 48 W/m 12,9 km/h (3 Bft) 95,74 %
14.10.2023 14:56 13,3 C 12,2 C 8,3 C 77 % 1014,4 hPa 0,0 l/m 0 min 0 min 46 W/m 12,9 km/h (3 Bft) 97,87 %
14.10.2023 14:58 13,3 C 12,8 C 8,9 C 78 % 1014,5 hPa 0,0 l/m 2 min 0 min 368 W/m 12,9 km/h (3 Bft) 93,62 %
14.10.2023 15:00 13,3 C 12,8 C 8,9 C 78 % 1014,4 hPa 0,0 l/m 2 min 0 min 470 W/m 6,4 km/h (2 Bft) 91,49 %
14.10.2023 15:02 13,4 C 13,3 C 9,4 C 78 % 1014,5 hPa 0,0 l/m 2 min 0 min 474 W/m 16,1 km/h (3 Bft) 97,87 %
14.10.2023 15:04 13,5 C 13,3 C 9,4 C 78 % 1014,5 hPa 0,0 l/m 2 min 0 min 474 W/m 12,9 km/h (3 Bft) 96,15 %
14.10.2023 15:06 13,6 C 13,3 C 9,4 C 78 % 1014,4 hPa 0,0 l/m 2 min 0 min 476 W/m 12,9 km/h (3 Bft) 95,65 %
14.10.2023 15:08 13,7 C 13,9 C 9,4 C 78 % 1014,4 hPa 0,0 l/m 2 min 0 min 478 W/m 19,3 km/h (3 Bft) 97,87 %
14.10.2023 15:10 13,8 C 13,9 C 10,0 C 77 % 1014,4 hPa 0,0 l/m 2 min 0 min 490 W/m 16,1 km/h (3 Bft) 97,87 %
14.10.2023 15:12 13,8 C 13,9 C 10,0 C 77 % 1014,4 hPa 0,0 l/m 0 min 0 min 158 W/m 9,7 km/h (2 Bft) 95,74 %
14.10.2023 15:14 13,9 C 13,9 C 10,0 C 75 % 1014,5 hPa 0,0 l/m 0 min 0 min 174 W/m 12,9 km/h (3 Bft) 97,87 %
14.10.2023 15:16 13,9 C 13,9 C 10,0 C 75 % 1014,5 hPa 0,0 l/m 0 min 0 min 174 W/m 12,9 km/h (3 Bft) 97,87 %
14.10.2023 15:18 13,9 C 13,9 C 10,0 C 75 % 1014,5 hPa 0,0 l/m 0 min 0 min 176 W/m 16,1 km/h (3 Bft) 97,87 %
14.10.2023 15:20 14,0 C 13,9 C 10,0 C 74 % 1014,5 hPa 0,0 l/m 0 min 0 min 185 W/m 19,3 km/h (3 Bft) 97,87 %
14.10.2023 15:22 14,1 C 13,9 C 10,0 C 74 % 1014,5 hPa 0,0 l/m 2 min 0 min 329 W/m 12,9 km/h (3 Bft) 91,49 %
14.10.2023 15:24 14,2 C 14,4 C 10,6 C 75 % 1014,5 hPa 0,0 l/m 2 min 0 min 564 W/m 9,7 km/h (2 Bft) 97,87 %
14.10.2023 15:26 14,3 C 14,4 C 10,0 C 74 % 1014,5 hPa 0,0 l/m 2 min 0 min 252 W/m 16,1 km/h (3 Bft) 97,83 %
14.10.2023 15:28 14,3 C 13,9 C 10,0 C 74 % 1014,5 hPa 0,0 l/m 0 min 0 min 77 W/m 12,9 km/h (3 Bft) 95,74 %
14.10.2023 15:30 14,3 C 13,9 C 10,0 C 75 % 1014,5 hPa 0,0 l/m 0 min 2 min 74 W/m 22,5 km/h (4 Bft) 95,74 %
14.10.2023 15:32 14,3 C 13,3 C 9,4 C 75 % 1014,5 hPa 0,0 l/m 0 min 2 min 86 W/m 19,3 km/h (3 Bft) 94,44 %
14.10.2023 15:34 14,2 C 13,3 C 9,4 C 75 % 1014,6 hPa 0,0 l/m 0 min 0 min 111 W/m 19,3 km/h (3 Bft) 92,59 %
14.10.2023 15:36 14,1 C 13,3 C 9,4 C 76 % 1014,7 hPa 0,0 l/m 0 min 0 min 130 W/m 16,1 km/h (3 Bft) 95,74 %
14.10.2023 15:38 13,9 C 13,3 C 9,4 C 76 % 1014,6 hPa 0,0 l/m 0 min 0 min 158 W/m 22,5 km/h (4 Bft) 96,00 %
14.10.2023 15:40 13,9 C 13,3 C 9,4 C 76 % 1014,6 hPa 0,0 l/m 0 min 0 min 178 W/m 19,3 km/h (3 Bft) 97,96 %
14.10.2023 15:42 13,8 C 13,3 C 9,4 C 76 % 1014,7 hPa 0,0 l/m 0 min 0 min 158 W/m 16,1 km/h (3 Bft) 97,87 %
14.10.2023 15:44 13,8 C 13,9 C 9,4 C 76 % 1014,6 hPa 0,0 l/m 2 min 0 min 209 W/m 19,3 km/h (3 Bft) 97,83 %
14.10.2023 15:46 13,9 C 13,9 C 10,0 C 75 % 1014,7 hPa 0,0 l/m 2 min 0 min 405 W/m 16,1 km/h (3 Bft) 97,87 %
14.10.2023 15:48 14,0 C 13,9 C 10,0 C 76 % 1014,7 hPa 0,0 l/m 2 min 0 min 389 W/m 16,1 km/h (3 Bft) 97,87 %
14.10.2023 15:50 14,1 C 13,9 C 10,0 C 74 % 1014,7 hPa 0,2 l/m 2 min 0 min 389 W/m 25,7 km/h (4 Bft) 97,87 %
14.10.2023 15:52 14,2 C 13,9 C 10,0 C 73 % 1014,7 hPa 0,0 l/m 2 min 0 min 384 W/m 16,1 km/h (3 Bft) 95,74 %
14.10.2023 15:54 14,3 C 13,9 C 10,6 C 73 % 1014,7 hPa 0,0 l/m 2 min 0 min 380 W/m 16,1 km/h (3 Bft) 97,87 %
14.10.2023 15:56 14,3 C 13,9 C 10,6 C 71 % 1014,7 hPa 0,0 l/m 2 min 0 min 379 W/m 29,0 km/h (5 Bft) 97,92 %
14.10.2023 15:58 14,3 C 13,9 C 10,6 C 69 % 1014,6 hPa 0,0 l/m 2 min 0 min 374 W/m 32,2 km/h (5 Bft) 97,67 %
14.10.2023 16:00 14,3 C 13,9 C 10,0 C 69 % 1014,7 hPa 0,0 l/m 2 min 0 min 374 W/m 32,2 km/h (5 Bft) 97,87 %
14.10.2023 16:02 14,3 C 13,9 C 10,0 C 68 % 1014,7 hPa 0,0 l/m 2 min 0 min 380 W/m 35,4 km/h (5 Bft) 97,87 %
14.10.2023 16:04 14,3 C 13,9 C 10,0 C 67 % 1014,7 hPa 0,0 l/m 2 min 0 min 385 W/m 29,0 km/h (5 Bft) 97,44 %
14.10.2023 16:08 14,3 C 13,9 C 10,0 C 67 % 1014,9 hPa 0,0 l/m 4 min 0 min 394 W/m 29,0 km/h (5 Bft) 97,96 %
14.10.2023 16:10 14,3 C 13,9 C 10,0 C 66 % 1014,8 hPa 0,0 l/m 0 min 0 min 147 W/m 29,0 km/h (5 Bft) 97,67 %
14.10.2023 16:12 14,3 C 13,9 C 10,0 C 66 % 1014,9 hPa 0,0 l/m 0 min 0 min 158 W/m 29,0 km/h (5 Bft) 97,87 %
14.10.2023 16:14 14,3 C 13,3 C 10,0 C 66 % 1014,9 hPa 0,0 l/m 0 min 0 min 120 W/m 19,3 km/h (3 Bft) 100,00 %
14.10.2023 16:15 14,2 C 13,3 C 10,0 C 66 % 1014,9 hPa 0,0 l/m 0 min 0 min 118 W/m 29,0 km/h (5 Bft) 100,00 %
14.10.2023 16:22 13,9 C 13,3 C 9,4 C 67 % 1015,1 hPa 0,0 l/m 0 min 0 min 154 W/m 12,9 km/h (3 Bft) 100,00 %
14.10.2023 16:24 13,8 C 13,3 C 9,4 C 68 % 1015,0 hPa 0,0 l/m 2 min 0 min 238 W/m 19,3 km/h (3 Bft) 100,00 %
14.10.2023 16:26 13,9 C 13,9 C 9,4 C 69 % 1015,1 hPa 0,0 l/m 2 min 0 min 391 W/m 16,1 km/h (3 Bft) 100,00 %
14.10.2023 16:28 13,9 C 13,9 C 10,0 C 70 % 1015,1 hPa 0,0 l/m 2 min 0 min 394 W/m 16,1 km/h (3 Bft) 100,00 %
14.10.2023 16:30 13,9 C 13,9 C 10,0 C 70 % 1015,1 hPa 0,0 l/m 2 min 0 min 329 W/m 16,1 km/h (3 Bft) 100,00 %
14.10.2023 16:32 13,9 C 13,9 C 10,0 C 71 % 1015,1 hPa 0,0 l/m 2 min 0 min 200 W/m 12,9 km/h (3 Bft) 97,67 %
14.10.2023 16:34 14,0 C 13,9 C 10,0 C 71 % 1015,2 hPa 0,0 l/m 2 min 0 min 270 W/m 19,3 km/h (3 Bft) 97,83 %
14.10.2023 16:36 14,1 C 13,9 C 10,0 C 71 % 1015,2 hPa 0,0 l/m 2 min 0 min 357 W/m 19,3 km/h (3 Bft) 95,92 %
14.10.2023 16:38 14,1 C 13,9 C 10,0 C 69 % 1015,2 hPa 0,0 l/m 2 min 0 min 245 W/m 22,5 km/h (4 Bft) 95,74 %
14.10.2023 16:40 13,9 C 13,3 C 9,4 C 68 % 1015,2 hPa 0,0 l/m 0 min 0 min 113 W/m 25,7 km/h (4 Bft) 97,87 %
14.10.2023 16:42 13,9 C 13,3 C 9,4 C 68 % 1015,2 hPa 0,0 l/m 0 min 0 min 101 W/m 12,9 km/h (3 Bft) 95,74 %
14.10.2023 16:44 13,8 C 13,3 C 9,4 C 68 % 1015,3 hPa 0,0 l/m 0 min 0 min 97 W/m 22,5 km/h (4 Bft) 97,83 %
14.10.2023 16:46 13,8 C 13,3 C 9,4 C 69 % 1015,4 hPa 0,0 l/m 0 min 0 min 89 W/m 12,9 km/h (3 Bft) 95,74 %
14.10.2023 16:48 13,7 C 12,8 C 9,4 C 69 % 1015,4 hPa 0,0 l/m 0 min 0 min 92 W/m 25,7 km/h (4 Bft) 97,87 %
14.10.2023 16:50 13,7 C 12,8 C 9,4 C 70 % 1015,4 hPa 0,0 l/m 0 min 0 min 118 W/m 12,9 km/h (3 Bft) 97,87 %
14.10.2023 16:52 13,7 C 13,3 C 9,4 C 70 % 1015,5 hPa 0,0 l/m 2 min 0 min 156 W/m 16,1 km/h (3 Bft) 95,74 %
14.10.2023 16:54 13,6 C 12,8 C 9,4 C 70 % 1015,5 hPa 0,0 l/m 0 min 0 min 83 W/m 22,5 km/h (4 Bft) 97,92 %
14.10.2023 16:56 13,6 C 12,8 C 8,9 C 69 % 1015,6 hPa 0,0 l/m 0 min 0 min 79 W/m 19,3 km/h (3 Bft) 97,87 %
14.10.2023 16:58 13,5 C 12,8 C 8,9 C 69 % 1015,6 hPa 0,0 l/m 0 min 0 min 88 W/m 16,1 km/h (3 Bft) 97,87 %
14.10.2023 17:00 13,4 C 12,8 C 8,9 C 69 % 1015,6 hPa 0,0 l/m 0 min 0 min 71 W/m 12,9 km/h (3 Bft) 97,83 %
14.10.2023 17:02 13,4 C 12,8 C 8,9 C 70 % 1015,6 hPa 0,0 l/m 0 min 0 min 72 W/m 19,3 km/h (3 Bft) 97,87 %
14.10.2023 17:04 13,3 C 12,8 C 8,9 C 70 % 1015,6 hPa 0,0 l/m 0 min 0 min 71 W/m 12,9 km/h (3 Bft) 97,78 %
14.10.2023 17:08 13,2 C 12,8 C 8,9 C 71 % 1015,7 hPa 0,0 l/m 0 min 0 min 75 W/m 16,1 km/h (3 Bft) 97,09 %
14.10.2023 17:10 13,2 C 12,8 C 8,9 C 71 % 1015,7 hPa 0,0 l/m 2 min 0 min 132 W/m 9,7 km/h (2 Bft) 99,12 %
14.10.2023 17:12 13,3 C 12,8 C 8,9 C 72 % 1015,8 hPa 0,0 l/m 2 min 0 min 120 W/m 12,9 km/h (3 Bft) 97,14 %
14.10.2023 17:14 13,3 C 12,8 C 9,4 C 72 % 1015,6 hPa 0,0 l/m 0 min 0 min 105 W/m 12,9 km/h (3 Bft) 100,00 %
14.10.2023 17:16 13,3 C 13,3 C 9,4 C 71 % 1015,5 hPa 0,0 l/m 0 min 0 min 89 W/m 12,9 km/h (3 Bft) 97,87 %
14.10.2023 17:18 13,4 C 13,3 C 9,4 C 70 % 1015,6 hPa 0,0 l/m 0 min 0 min 74 W/m 16,1 km/h (3 Bft) 97,87 %
14.10.2023 17:20 13,4 C 12,8 C 9,4 C 69 % 1015,6 hPa 0,0 l/m 0 min 0 min 61 W/m 16,1 km/h (3 Bft) 100,00 %
14.10.2023 17:22 13,4 C 12,8 C 9,4 C 69 % 1015,6 hPa 0,0 l/m 0 min 0 min 50 W/m 6,4 km/h (2 Bft) 100,00 %
14.10.2023 17:24 13,4 C 12,8 C 9,4 C 69 % 1015,7 hPa 0,0 l/m 0 min 0 min 46 W/m 16,1 km/h (3 Bft) 97,87 %
14.10.2023 17:26 13,4 C 12,8 C 8,9 C 68 % 1015,6 hPa 0,0 l/m 0 min 0 min 44 W/m 22,5 km/h (4 Bft) 97,87 %
14.10.2023 17:28 13,3 C 12,8 C 8,9 C 67 % 1015,6 hPa 0,0 l/m 0 min 0 min 44 W/m 19,3 km/h (3 Bft) 97,83 %
14.10.2023 17:30 13,3 C 12,8 C 8,9 C 68 % 1015,6 hPa 0,0 l/m 0 min 0 min 42 W/m 16,1 km/h (3 Bft) 95,74 %
14.10.2023 17:32 13,3 C 12,8 C 8,9 C 68 % 1015,6 hPa 0,0 l/m 0 min 0 min 44 W/m 12,9 km/h (3 Bft) 98,18 %
14.10.2023 17:34 13,3 C 12,8 C 8,9 C 68 % 1015,6 hPa 0,0 l/m 0 min 0 min 45 W/m 16,1 km/h (3 Bft) 95,65 %
14.10.2023 17:36 13,2 C 12,8 C 8,9 C 69 % 1015,6 hPa 0,0 l/m 0 min 0 min 50 W/m 16,1 km/h (3 Bft) 97,37 %
14.10.2023 17:38 13,2 C 12,8 C 8,9 C 69 % 1015,6 hPa 0,0 l/m 0 min 0 min 60 W/m 16,1 km/h (3 Bft) 97,87 %
14.10.2023 17:40 13,2 C 12,8 C 8,9 C 70 % 1015,8 hPa 0,0 l/m 2 min 0 min 107 W/m 35,4 km/h (5 Bft) 95,92 %
14.10.2023 17:42 13,1 C 12,2 C 7,2 C 72 % 1015,8 hPa 0,0 l/m 2 min 2 min 127 W/m 22,5 km/h (4 Bft) 93,48 %
14.10.2023 17:44 12,9 C 11,7 C 7,2 C 73 % 1015,8 hPa 0,0 l/m 2 min 2 min 101 W/m 29,0 km/h (5 Bft) 93,62 %
14.10.2023 17:46 12,7 C 11,7 C 6,7 C 74 % 1015,7 hPa 0,0 l/m 2 min 0 min 80 W/m 16,1 km/h (3 Bft) 93,62 %
14.10.2023 17:48 12,6 C 11,7 C 6,7 C 74 % 1015,8 hPa 0,0 l/m 0 min 0 min 62 W/m 16,1 km/h (3 Bft) 95,74 %
14.10.2023 17:50 12,5 C 11,7 C 6,7 C 75 % 1015,8 hPa 0,0 l/m 0 min 0 min 46 W/m 12,9 km/h (3 Bft) 93,62 %
14.10.2023 17:52 12,4 C 11,7 C 6,7 C 75 % 1015,8 hPa 0,0 l/m 0 min 0 min 42 W/m 16,1 km/h (3 Bft) 95,74 %
14.10.2023 17:54 12,3 C 11,7 C 7,2 C 75 % 1015,8 hPa 0,0 l/m 0 min 0 min 40 W/m 6,4 km/h (2 Bft) 96,23 %
14.10.2023 17:56 12,2 C 11,1 C 7,8 C 75 % 1015,8 hPa 0,0 l/m 0 min 0 min 35 W/m 19,3 km/h (3 Bft) 91,49 %
14.10.2023 17:58 12,2 C 11,1 C 7,8 C 75 % 1015,8 hPa 0,0 l/m 0 min 0 min 28 W/m 12,9 km/h (3 Bft) 95,45 %
14.10.2023 18:00 12,1 C 11,1 C 7,8 C 75 % 1015,8 hPa 0,0 l/m 0 min 0 min 25 W/m 19,3 km/h (3 Bft) 95,74 %
14.10.2023 18:02 12,0 C 11,1 C 7,8 C 75 % 1015,9 hPa 0,0 l/m 0 min 0 min 23 W/m 12,9 km/h (3 Bft) 97,87 %
14.10.2023 18:04 11,9 C 11,1 C 7,8 C 76 % 1015,9 hPa 0,0 l/m 0 min 0 min 23 W/m 12,9 km/h (3 Bft) 97,96 %
14.10.2023 18:08 11,8 C 11,1 C 7,2 C 77 % 1015,9 hPa 0,0 l/m 0 min 0 min 21 W/m 16,1 km/h (3 Bft) 97,70 %
14.10.2023 18:10 11,8 C 11,1 C 7,2 C 77 % 1016,0 hPa 0,0 l/m 0 min 0 min 20 W/m 6,4 km/h (2 Bft) 100,00 %
14.10.2023 18:12 11,8 C 11,1 C 7,2 C 78 % 1016,0 hPa 0,0 l/m 0 min 0 min 18 W/m 9,7 km/h (2 Bft) 97,87 %
14.10.2023 18:16 11,7 C 10,6 C 7,2 C 78 % 1016,1 hPa 0,0 l/m 0 min 0 min 18 W/m 12,9 km/h (3 Bft) 100,00 %
14.10.2023 18:18 11,7 C 10,6 C 7,2 C 78 % 1016,2 hPa 0,0 l/m 0 min 0 min 18 W/m 9,7 km/h (2 Bft) 100,00 %
14.10.2023 18:20 11,7 C 10,6 C 7,2 C 78 % 1016,2 hPa 0,0 l/m 0 min 0 min 16 W/m 9,7 km/h (2 Bft) 100,00 %
14.10.2023 18:22 11,6 C 10,6 C 7,2 C 78 % 1016,2 hPa 0,0 l/m 0 min 0 min 15 W/m 9,7 km/h (2 Bft) 97,83 %
14.10.2023 18:28 11,6 C 10,6 C 7,2 C 79 % 1016,3 hPa 0,0 l/m 0 min 0 min 11 W/m 16,1 km/h (3 Bft) 100,00 %
14.10.2023 18:30 11,5 C 10,6 C 7,2 C 78 % 1016,3 hPa 0,0 l/m 0 min 0 min 10 W/m 16,1 km/h (3 Bft) 100,00 %
14.10.2023 18:32 11,6 C 11,1 C 7,2 C 78 % 1016,3 hPa 0,0 l/m 0 min 0 min 9 W/m 12,9 km/h (3 Bft) 100,00 %
14.10.2023 18:34 11,6 C 11,1 C 7,2 C 78 % 1016,3 hPa 0,0 l/m 0 min 0 min 9 W/m 12,9 km/h (3 Bft) 100,00 %
14.10.2023 18:36 11,6 C 10,6 C 7,2 C 78 % 1016,4 hPa 0,0 l/m 0 min 0 min 7 W/m 16,1 km/h (3 Bft) 100,00 %
14.10.2023 18:38 11,6 C 11,1 C 7,2 C 78 % 1016,4 hPa 0,0 l/m 0 min 0 min 7 W/m 19,3 km/h (3 Bft) 97,87 %
14.10.2023 18:40 11,6 C 11,1 C 7,2 C 78 % 1016,5 hPa 0,0 l/m 0 min 0 min 5 W/m 9,7 km/h (2 Bft) 100,00 %
14.10.2023 18:42 11,6 C 11,1 C 7,2 C 78 % 1016,5 hPa 0,0 l/m 0 min 0 min 5 W/m 6,4 km/h (2 Bft) 100,00 %
14.10.2023 18:44 11,6 C 10,6 C 7,2 C 78 % 1016,6 hPa 0,0 l/m 0 min 0 min 4 W/m 6,4 km/h (2 Bft) 97,87 %
14.10.2023 18:46 11,6 C 10,6 C 7,2 C 78 % 1016,6 hPa 0,0 l/m 0 min 0 min 0 W/m 9,7 km/h (2 Bft) 100,00 %
14.10.2023 18:48 11,6 C 10,6 C 7,2 C 78 % 1016,7 hPa 0,0 l/m 0 min 0 min 0 W/m 3,2 km/h (1 Bft) 100,00 %
14.10.2023 18:50 11,6 C 10,6 C 7,2 C 78 % 1016,7 hPa 0,0 l/m 0 min 0 min 0 W/m 9,7 km/h (2 Bft) 100,00 %
14.10.2023 18:52 11,5 C 10,6 C 7,2 C 78 % 1016,7 hPa 0,0 l/m 0 min 0 min 0 W/m 6,4 km/h (2 Bft) 100,00 %
14.10.2023 18:54 11,5 C 10,6 C 7,2 C 78 % 1016,8 hPa 0,0 l/m 0 min 0 min 0 W/m 6,4 km/h (2 Bft) 100,00 %
14.10.2023 18:56 11,5 C 10,6 C 7,2 C 78 % 1016,8 hPa 0,0 l/m 0 min 0 min 0 W/m 6,4 km/h (2 Bft) 100,00 %
14.10.2023 19:02 11,4 C 10,6 C 7,2 C 79 % 1016,9 hPa 0,0 l/m 0 min 0 min 0 W/m 6,4 km/h (2 Bft) 98,04 %
14.10.2023 19:04 11,4 C 10,6 C 7,2 C 79 % 1016,9 hPa 0,0 l/m 0 min 0 min 0 W/m 12,9 km/h (3 Bft) 100,00 %
14.10.2023 19:08 11,4 C 10,6 C 7,2 C 79 % 1017,0 hPa 0,0 l/m 0 min 0 min 0 W/m 12,9 km/h (3 Bft) 99,01 %
14.10.2023 19:10 11,4 C 10,6 C 7,2 C 79 % 1017,0 hPa 0,0 l/m 0 min 0 min 0 W/m 12,9 km/h (3 Bft) 100,00 %
14.10.2023 19:12 11,4 C 10,6 C 7,2 C 79 % 1017,0 hPa 0,0 l/m 0 min 0 min 0 W/m 6,4 km/h (2 Bft) 100,00 %
14.10.2023 19:14 11,4 C 10,6 C 7,2 C 79 % 1017,1 hPa 0,0 l/m 0 min 0 min 0 W/m 12,9 km/h (3 Bft) 100,00 %
14.10.2023 19:16 11,4 C 10,6 C 7,2 C 79 % 1017,1 hPa 0,0 l/m 0 min 0 min 0 W/m 9,7 km/h (2 Bft) 100,00 %
14.10.2023 19:18 11,3 C 10,6 C 7,2 C 79 % 1017,2 hPa 0,0 l/m 0 min 0 min 0 W/m 9,7 km/h (2 Bft) 97,87 %
14.10.2023 19:20 11,3 C 10,6 C 7,2 C 79 % 1017,1 hPa 0,0 l/m 0 min 0 min 0 W/m 12,9 km/h (3 Bft) 100,00 %
14.10.2023 19:22 11,4 C 10,6 C 7,2 C 79 % 1017,2 hPa 0,0 l/m 0 min 0 min 0 W/m 9,7 km/h (2 Bft) 100,00 %
14.10.2023 19:24 11,4 C 10,6 C 7,2 C 79 % 1017,2 hPa 0,0 l/m 0 min 0 min 0 W/m 6,4 km/h (2 Bft) 100,00 %
14.10.2023 19:26 11,3 C 10,6 C 7,2 C 79 % 1017,3 hPa 0,0 l/m 0 min 0 min 0 W/m 16,1 km/h (3 Bft) 95,65 %
14.10.2023 19:28 11,4 C 10,6 C 7,2 C 78 % 1017,3 hPa 0,0 l/m 0 min 0 min 0 W/m 9,7 km/h (2 Bft) 97,87 %
14.10.2023 19:30 11,3 C 10,6 C 7,2 C 78 % 1017,3 hPa 0,0 l/m 0 min 0 min 0 W/m 6,4 km/h (2 Bft) 95,74 %
14.10.2023 19:32 11,4 C 10,6 C 7,2 C 78 % 1017,3 hPa 0,0 l/m 0 min 0 min 0 W/m 19,3 km/h (3 Bft) 93,62 %
14.10.2023 19:34 11,4 C 10,6 C 7,2 C 78 % 1017,3 hPa 0,0 l/m 0 min 0 min 0 W/m 6,4 km/h (2 Bft) 91,49 %
14.10.2023 19:36 11,4 C 10,6 C 7,2 C 78 % 1017,4 hPa 0,0 l/m 0 min 0 min 0 W/m 3,2 km/h (1 Bft) 95,74 %
14.10.2023 19:38 11,4 C 10,6 C 7,2 C 79 % 1017,4 hPa 0,0 l/m 0 min 0 min 0 W/m 6,4 km/h (2 Bft) 95,65 %
14.10.2023 19:40 11,3 C 10,6 C 7,2 C 78 % 1017,4 hPa 0,0 l/m 0 min 0 min 0 W/m 9,7 km/h (2 Bft) 93,62 %
14.10.2023 19:42 11,3 C 10,6 C 7,2 C 78 % 1017,5 hPa 0,0 l/m 0 min 0 min 0 W/m 9,7 km/h (2 Bft) 95,74 %
14.10.2023 19:44 11,3 C 10,6 C 7,2 C 78 % 1017,5 hPa 0,0 l/m 0 min 0 min 0 W/m 6,4 km/h (2 Bft) 93,62 %
14.10.2023 19:46 11,3 C 10,6 C 7,2 C 78 % 1017,5 hPa 0,0 l/m 0 min 0 min 0 W/m 6,4 km/h (2 Bft) 91,49 %
14.10.2023 19:48 11,2 C 10,6 C 7,2 C 79 % 1017,6 hPa 0,0 l/m 0 min 0 min 0 W/m 9,7 km/h (2 Bft) 91,49 %
14.10.2023 19:50 11,2 C 10,6 C 7,2 C 79 % 1017,6 hPa 0,0 l/m 0 min 0 min 0 W/m 9,7 km/h (2 Bft) 93,62 %
14.10.2023 19:52 11,2 C 10,6 C 7,2 C 79 % 1017,6 hPa 0,0 l/m 0 min 0 min 0 W/m 12,9 km/h (3 Bft) 89,80 %
14.10.2023 19:54 11,1 C 10,6 C 7,2 C 79 % 1017,6 hPa 0,0 l/m 0 min 0 min 0 W/m 6,4 km/h (2 Bft) 95,74 %
14.10.2023 19:56 11,1 C 10,6 C 7,2 C 79 % 1017,6 hPa 0,0 l/m 0 min 0 min 0 W/m 9,7 km/h (2 Bft) 93,62 %
14.10.2023 19:58 11,1 C 10,0 C 6,7 C 79 % 1017,6 hPa 0,0 l/m 0 min 0 min 0 W/m 9,7 km/h (2 Bft) 95,74 %
14.10.2023 20:00 11,1 C 10,0 C 7,2 C 79 % 1017,6 hPa 0,0 l/m 0 min 0 min 0 W/m 6,4 km/h (2 Bft) 93,62 %
14.10.2023 20:02 11,1 C 10,0 C 7,2 C 79 % 1017,6 hPa 0,0 l/m 0 min 0 min 0 W/m 12,9 km/h (3 Bft) 93,62 %
14.10.2023 20:04 11,1 C 10,6 C 7,2 C 79 % 1017,6 hPa 0,0 l/m 0 min 0 min 0 W/m 9,7 km/h (2 Bft) 98,00 %
14.10.2023 20:06 11,1 C 10,6 C 7,2 C 79 % 1017,7 hPa 0,0 l/m 0 min 0 min 0 W/m 6,4 km/h (2 Bft) 94,74 %
14.10.2023 20:08 11,1 C 10,0 C 7,2 C 79 % 1017,6 hPa 0,0 l/m 0 min 0 min 0 W/m 12,9 km/h (3 Bft) 93,62 %
14.10.2023 20:10 11,1 C 10,0 C 7,2 C 79 % 1017,7 hPa 0,0 l/m 0 min 0 min 0 W/m 6,4 km/h (2 Bft) 95,74 %
14.10.2023 20:12 11,1 C 10,0 C 6,7 C 79 % 1017,7 hPa 0,0 l/m 0 min 0 min 0 W/m 6,4 km/h (2 Bft) 93,62 %
14.10.2023 20:14 11,0 C 10,0 C 6,7 C 80 % 1017,8 hPa 0,0 l/m 0 min 0 min 0 W/m 6,4 km/h (2 Bft) 95,74 %
14.10.2023 20:16 11,0 C 10,0 C 6,7 C 80 % 1017,8 hPa 0,0 l/m 0 min 0 min 0 W/m 3,2 km/h (1 Bft) 97,87 %
14.10.2023 20:18 11,0 C 10,0 C 6,7 C 80 % 1017,7 hPa 0,0 l/m 0 min 0 min 0 W/m 3,2 km/h (1 Bft) 95,74 %
14.10.2023 20:20 10,9 C 10,0 C 6,7 C 80 % 1017,8 hPa 0,0 l/m 0 min 0 min 0 W/m 6,4 km/h (2 Bft) 95,65 %
14.10.2023 20:22 10,9 C 10,0 C 6,7 C 80 % 1017,8 hPa 0,0 l/m 0 min 0 min 0 W/m 3,2 km/h (1 Bft) 93,62 %
14.10.2023 20:24 10,9 C 10,0 C 6,7 C 80 % 1017,8 hPa 0,0 l/m 0 min 0 min 0 W/m 6,4 km/h (2 Bft) 100,00 %
14.10.2023 20:26 10,8 C 10,0 C 6,7 C 81 % 1017,8 hPa 0,0 l/m 0 min 0 min 0 W/m 6,4 km/h (2 Bft) 97,87 %
14.10.2023 20:28 10,8 C 10,0 C 6,7 C 81 % 1017,9 hPa 0,0 l/m 0 min 0 min 0 W/m 6,4 km/h (2 Bft) 97,87 %
14.10.2023 20:30 10,8 C 10,0 C 6,7 C 81 % 1017,9 hPa 0,0 l/m 0 min 0 min 0 W/m 3,2 km/h (1 Bft) 97,87 %
14.10.2023 20:32 10,8 C 10,0 C 6,7 C 81 % 1017,9 hPa 0,0 l/m 0 min 0 min 0 W/m 3,2 km/h (1 Bft) 95,74 %
14.10.2023 20:34 10,7 C 10,0 C 6,7 C 81 % 1017,9 hPa 0,0 l/m 0 min 0 min 0 W/m 6,4 km/h (2 Bft) 93,62 %
14.10.2023 20:36 10,7 C 9,4 C 6,7 C 81 % 1018,0 hPa 0,0 l/m 0 min 0 min 0 W/m 6,4 km/h (2 Bft) 52,38 %
14.10.2023 20:38 10,7 C 10,0 C 6,7 C 82 % 1018,0 hPa 0,0 l/m 0 min 0 min 0 W/m 3,2 km/h (1 Bft) 100,00 %
14.10.2023 20:40 10,7 C 10,0 C 6,7 C 82 % 1018,0 hPa 0,0 l/m 0 min 0 min 0 W/m 3,2 km/h (1 Bft) 100,00 %
14.10.2023 20:42 10,7 C 10,0 C 6,7 C 82 % 1018,0 hPa 0,0 l/m 0 min 0 min 0 W/m 3,2 km/h (1 Bft) 100,00 %
14.10.2023 20:44 10,7 C 10,0 C 6,7 C 82 % 1018,1 hPa 0,0 l/m 0 min 0 min 0 W/m 3,2 km/h (1 Bft) 97,87 %
14.10.2023 20:46 10,8 C 10,0 C 6,7 C 82 % 1018,1 hPa 0,0 l/m 0 min 0 min 0 W/m 6,4 km/h (2 Bft) 100,00 %
14.10.2023 20:48 10,7 C 10,0 C 6,7 C 81 % 1018,1 hPa 0,0 l/m 0 min 0 min 0 W/m 3,2 km/h (1 Bft) 100,00 %
14.10.2023 20:50 10,7 C 10,0 C 6,7 C 81 % 1018,2 hPa 0,0 l/m 0 min 0 min 0 W/m 6,4 km/h (2 Bft) 100,00 %
14.10.2023 20:52 10,7 C 10,0 C 6,7 C 81 % 1018,2 hPa 0,0 l/m 0 min 0 min 0 W/m 9,7 km/h (2 Bft) 100,00 %
14.10.2023 20:54 10,7 C 10,0 C 6,7 C 81 % 1018,2 hPa 0,0 l/m 0 min 0 min 0 W/m 6,4 km/h (2 Bft) 100,00 %
14.10.2023 20:56 10,7 C 10,0 C 6,7 C 81 % 1018,2 hPa 0,0 l/m 0 min 0 min 0 W/m 3,2 km/h (1 Bft) 100,00 %
14.10.2023 20:58 10,7 C 10,0 C 6,7 C 81 % 1018,2 hPa 0,0 l/m 0 min 0 min 0 W/m 3,2 km/h (1 Bft) 97,87 %
14.10.2023 21:00 10,7 C 10,0 C 6,7 C 81 % 1018,2 hPa 0,0 l/m 0 min 0 min 0 W/m 3,2 km/h (1 Bft) 100,00 %
14.10.2023 21:02 10,7 C 10,0 C 6,7 C 80 % 1018,3 hPa 0,0 l/m 0 min 0 min 0 W/m 3,2 km/h (1 Bft) 100,00 %
14.10.2023 21:04 10,7 C 10,0 C 6,7 C 80 % 1018,3 hPa 0,0 l/m 0 min 0 min 0 W/m 6,4 km/h (2 Bft) 100,00 %
14.10.2023 21:08 10,7 C 10,0 C 6,7 C 80 % 1018,3 hPa 0,0 l/m 0 min 0 min 0 W/m 3,2 km/h (1 Bft) 98,94 %
14.10.2023 21:10 10,6 C 10,0 C 6,7 C 80 % 1018,3 hPa 0,0 l/m 0 min 0 min 0 W/m 6,4 km/h (2 Bft) 97,14 %
14.10.2023 21:12 10,6 C 10,0 C 6,7 C 80 % 1018,3 hPa 0,0 l/m 0 min 0 min 0 W/m 3,2 km/h (1 Bft) 97,83 %
14.10.2023 21:14 10,6 C 9,4 C 6,7 C 80 % 1018,4 hPa 0,0 l/m 0 min 0 min 0 W/m 3,2 km/h (1 Bft) 97,87 %
14.10.2023 21:16 10,6 C 9,4 C 6,7 C 80 % 1018,5 hPa 0,0 l/m 0 min 0 min 0 W/m 3,2 km/h (1 Bft) 97,87 %
14.10.2023 21:18 10,5 C 9,4 C 6,1 C 80 % 1018,5 hPa 0,0 l/m 0 min 0 min 0 W/m 6,4 km/h (2 Bft) 95,74 %
14.10.2023 21:20 10,4 C 9,4 C 6,1 C 80 % 1018,4 hPa 0,0 l/m 0 min 0 min 0 W/m 6,4 km/h (2 Bft) 97,87 %
14.10.2023 21:22 10,4 C 9,4 C 6,1 C 81 % 1018,4 hPa 0,0 l/m 0 min 0 min 0 W/m 3,2 km/h (1 Bft) 97,87 %
14.10.2023 21:24 10,4 C 9,4 C 6,1 C 81 % 1018,4 hPa 0,0 l/m 0 min 0 min 0 W/m 3,2 km/h (1 Bft) 95,74 %
14.10.2023 21:26 10,4 C 9,4 C 6,1 C 81 % 1018,4 hPa 0,0 l/m 0 min 0 min 0 W/m 3,2 km/h (1 Bft) 95,74 %
14.10.2023 21:28 10,4 C 9,4 C 6,1 C 81 % 1018,4 hPa 0,0 l/m 0 min 0 min 0 W/m 3,2 km/h (1 Bft) 97,83 %
14.10.2023 21:30 10,3 C 9,4 C 6,1 C 81 % 1018,4 hPa 0,0 l/m 0 min 0 min 0 W/m 6,4 km/h (2 Bft) 97,87 %
14.10.2023 21:32 10,3 C 9,4 C 6,1 C 81 % 1018,4 hPa 0,0 l/m 0 min 0 min 0 W/m 6,4 km/h (2 Bft) 97,87 %
14.10.2023 21:34 10,2 C 9,4 C 6,1 C 81 % 1018,3 hPa 0,0 l/m 0 min 0 min 0 W/m 3,2 km/h (1 Bft) 97,87 %
14.10.2023 21:36 10,2 C 9,4 C 6,1 C 82 % 1018,3 hPa 0,0 l/m 0 min 0 min 0 W/m 0,0 km/h (0 Bft) 97,87 %
14.10.2023 21:38 10,2 C 9,4 C 6,1 C 82 % 1018,3 hPa 0,0 l/m 0 min 0 min 0 W/m 0,0 km/h (0 Bft) 100,00 %
14.10.2023 21:40 10,1 C 9,4 C 6,1 C 82 % 1018,3 hPa 0,0 l/m 0 min 0 min 0 W/m 6,4 km/h (2 Bft) 100,00 %
14.10.2023 21:42 10,1 C 9,4 C 6,1 C 82 % 1018,3 hPa 0,0 l/m 0 min 0 min 0 W/m 9,7 km/h (2 Bft) 100,00 %
14.10.2023 21:44 10,1 C 8,9 C 6,1 C 82 % 1018,4 hPa 0,0 l/m 0 min 0 min 0 W/m 3,2 km/h (1 Bft) 100,00 %
14.10.2023 21:46 10,1 C 8,9 C 6,1 C 83 % 1018,4 hPa 0,0 l/m 0 min 0 min 0 W/m 3,2 km/h (1 Bft) 100,00 %
14.10.2023 21:48 10,1 C 8,9 C 6,1 C 83 % 1018,4 hPa 0,0 l/m 0 min 0 min 0 W/m 0,0 km/h (0 Bft) 100,00 %
14.10.2023 21:50 10,0 C 8,9 C 5,6 C 83 % 1018,4 hPa 0,0 l/m 0 min 0 min 0 W/m 0,0 km/h (0 Bft) 100,00 %
14.10.2023 21:52 10,0 C 8,9 C 5,6 C 83 % 1018,4 hPa 0,0 l/m 0 min 0 min 0 W/m 3,2 km/h (1 Bft) 97,87 %
14.10.2023 21:54 9,9 C 8,9 C 6,1 C 83 % 1018,4 hPa 0,0 l/m 0 min 0 min 0 W/m 3,2 km/h (1 Bft) 100,00 %
14.10.2023 21:56 9,9 C 8,9 C 6,1 C 84 % 1018,5 hPa 0,0 l/m 0 min 0 min 0 W/m 3,2 km/h (1 Bft) 100,00 %
14.10.2023 21:58 9,9 C 8,9 C 5,6 C 84 % 1018,5 hPa 0,0 l/m 0 min 0 min 0 W/m 3,2 km/h (1 Bft) 100,00 %
14.10.2023 22:00 9,8 C 8,9 C 5,6 C 84 % 1018,6 hPa 0,0 l/m 0 min 0 min 0 W/m 6,4 km/h (2 Bft) 97,87 %
14.10.2023 22:02 9,8 C 8,9 C 6,1 C 84 % 1018,5 hPa 0,0 l/m 0 min 0 min 0 W/m 6,4 km/h (2 Bft) 100,00 %
14.10.2023 22:04 9,8 C 8,9 C 6,1 C 84 % 1018,5 hPa 0,0 l/m 0 min 0 min 0 W/m 6,4 km/h (2 Bft) 97,96 %
14.10.2023 22:08 9,7 C 8,9 C 5,6 C 84 % 1018,6 hPa 0,0 l/m 0 min 0 min 0 W/m 3,2 km/h (1 Bft) 97,92 %
14.10.2023 22:09 9,7 C 8,9 C 5,6 C 85 % 1018,5 hPa 0,0 l/m 0 min 0 min 0 W/m 6,4 km/h (2 Bft) 91,30 %
14.10.2023 22:12 9,7 C 8,9 C 5,6 C 85 % 1018,6 hPa 0,0 l/m 0 min 0 min 0 W/m 3,2 km/h (1 Bft) 98,57 %
14.10.2023 22:14 9,7 C 8,9 C 5,6 C 85 % 1018,6 hPa 0,0 l/m 0 min 0 min 0 W/m 3,2 km/h (1 Bft) 97,87 %
14.10.2023 22:16 9,7 C 8,3 C 5,6 C 85 % 1018,7 hPa 0,0 l/m 0 min 0 min 0 W/m 3,2 km/h (1 Bft) 95,74 %
14.10.2023 22:18 9,6 C 8,3 C 5,6 C 85 % 1018,7 hPa 0,0 l/m 0 min 0 min 0 W/m 3,2 km/h (1 Bft) 97,87 %
14.10.2023 22:20 9,6 C 8,3 C 5,6 C 85 % 1018,7 hPa 0,0 l/m 0 min 0 min 0 W/m 3,2 km/h (1 Bft) 95,74 %
14.10.2023 22:22 9,6 C 8,3 C 5,6 C 85 % 1018,7 hPa 0,0 l/m 0 min 0 min 0 W/m 0,0 km/h (0 Bft) 100,00 %
14.10.2023 22:24 9,6 C 8,3 C 5,6 C 86 % 1018,8 hPa 0,0 l/m 0 min 0 min 0 W/m 3,2 km/h (1 Bft) 97,83 %
14.10.2023 22:26 9,5 C 8,3 C 5,6 C 86 % 1018,8 hPa 0,0 l/m 0 min 0 min 0 W/m 3,2 km/h (1 Bft) 100,00 %
14.10.2023 22:28 9,4 C 8,3 C 5,6 C 86 % 1018,8 hPa 0,0 l/m 0 min 0 min 0 W/m 3,2 km/h (1 Bft) 100,00 %
14.10.2023 22:30 9,4 C 8,3 C 5,6 C 86 % 1018,8 hPa 0,0 l/m 0 min 0 min 0 W/m 3,2 km/h (1 Bft) 95,74 %
14.10.2023 22:32 9,4 C 8,3 C 5,6 C 86 % 1018,8 hPa 0,0 l/m 0 min 0 min 0 W/m 3,2 km/h (1 Bft) 100,00 %
14.10.2023 22:34 9,3 C 8,3 C 5,6 C 86 % 1018,8 hPa 0,0 l/m 0 min 0 min 0 W/m 6,4 km/h (2 Bft) 97,87 %
14.10.2023 22:36 9,3 C 8,3 C 5,6 C 87 % 1018,8 hPa 0,0 l/m 0 min 0 min 0 W/m 3,2 km/h (1 Bft) 97,87 %
14.10.2023 22:38 9,3 C 8,3 C 5,0 C 87 % 1018,8 hPa 0,0 l/m 0 min 0 min 0 W/m 3,2 km/h (1 Bft) 95,74 %
14.10.2023 22:40 9,3 C 8,3 C 5,0 C 87 % 1018,9 hPa 0,0 l/m 0 min 0 min 0 W/m 0,0 km/h (0 Bft) 97,83 %
14.10.2023 22:42 9,2 C 8,3 C 5,0 C 87 % 1019,0 hPa 0,0 l/m 0 min 0 min 0 W/m 3,2 km/h (1 Bft) 97,87 %
14.10.2023 22:44 9,2 C 8,3 C 5,0 C 87 % 1018,9 hPa 0,0 l/m 0 min 0 min 0 W/m 3,2 km/h (1 Bft) 95,74 %
14.10.2023 22:46 9,2 C 8,3 C 5,0 C 88 % 1018,9 hPa 0,0 l/m 0 min 0 min 0 W/m 3,2 km/h (1 Bft) 93,62 %
14.10.2023 22:48 9,2 C 8,3 C 5,0 C 88 % 1018,9 hPa 0,0 l/m 0 min 0 min 0 W/m 3,2 km/h (1 Bft) 97,87 %
14.10.2023 22:50 9,2 C 8,3 C 5,0 C 88 % 1018,9 hPa 0,0 l/m 0 min 0 min 0 W/m 6,4 km/h (2 Bft) 97,87 %
14.10.2023 22:52 9,2 C 8,3 C 5,0 C 88 % 1018,9 hPa 0,0 l/m 0 min 0 min 0 W/m 3,2 km/h (1 Bft) 97,87 %
14.10.2023 22:54 9,2 C 8,3 C 5,0 C 88 % 1018,9 hPa 0,0 l/m 0 min 0 min 0 W/m 3,2 km/h (1 Bft) 98,00 %
14.10.2023 22:56 9,1 C 8,3 C 5,0 C 88 % 1018,9 hPa 0,0 l/m 0 min 0 min 0 W/m 3,2 km/h (1 Bft) 97,14 %
14.10.2023 22:58 9,1 C 8,3 C 5,0 C 88 % 1018,9 hPa 0,0 l/m 0 min 0 min 0 W/m 3,2 km/h (1 Bft) 97,87 %
14.10.2023 23:00 9,1 C 8,3 C 5,0 C 88 % 1018,9 hPa 0,0 l/m 0 min 0 min 0 W/m 6,4 km/h (2 Bft) 98,04 %
14.10.2023 23:02 9,1 C 8,3 C 5,0 C 88 % 1018,9 hPa 0,0 l/m 0 min 0 min 0 W/m 3,2 km/h (1 Bft) 100,00 %
14.10.2023 23:04 9,0 C 8,3 C 5,0 C 89 % 1019,0 hPa 0,0 l/m 0 min 0 min 0 W/m 6,4 km/h (2 Bft) 96,36 %
14.10.2023 23:06 9,0 C 8,3 C 5,0 C 89 % 1019,0 hPa 0,0 l/m 0 min 0 min 0 W/m 3,2 km/h (1 Bft) 95,74 %
14.10.2023 23:08 9,0 C 8,3 C 5,0 C 89 % 1019,0 hPa 0,0 l/m 0 min 0 min 0 W/m 6,4 km/h (2 Bft) 95,74 %
14.10.2023 23:10 8,9 C 8,3 C 5,0 C 89 % 1019,0 hPa 0,0 l/m 0 min 0 min 0 W/m 3,2 km/h (1 Bft) 95,74 %
14.10.2023 23:12 8,9 C 8,3 C 5,0 C 89 % 1019,0 hPa 0,0 l/m 0 min 0 min 0 W/m 6,4 km/h (2 Bft) 95,74 %
14.10.2023 23:14 8,9 C 8,3 C 5,0 C 89 % 1019,0 hPa 0,0 l/m 0 min 0 min 0 W/m 3,2 km/h (1 Bft) 95,74 %
14.10.2023 23:16 8,9 C 8,3 C 5,0 C 89 % 1018,9 hPa 0,0 l/m 0 min 0 min 0 W/m 0,0 km/h (0 Bft) 97,87 %
14.10.2023 23:18 8,9 C 8,3 C 5,0 C 89 % 1019,0 hPa 0,0 l/m 0 min 0 min 0 W/m 6,4 km/h (2 Bft) 97,83 %
14.10.2023 23:20 8,9 C 7,8 C 5,0 C 89 % 1019,0 hPa 0,0 l/m 0 min 0 min 0 W/m 6,4 km/h (2 Bft) 97,87 %
14.10.2023 23:22 8,8 C 7,8 C 5,0 C 89 % 1019,0 hPa 0,0 l/m 0 min 0 min 0 W/m 6,4 km/h (2 Bft) 97,87 %
14.10.2023 23:24 8,8 C 7,8 C 5,0 C 89 % 1019,0 hPa 0,0 l/m 0 min 0 min 0 W/m 3,2 km/h (1 Bft) 97,87 %
14.10.2023 23:26 8,8 C 7,8 C 5,0 C 89 % 1019,0 hPa 0,0 l/m 0 min 0 min 0 W/m 0,0 km/h (0 Bft) 97,87 %
14.10.2023 23:28 8,8 C 7,8 C 5,0 C 89 % 1019,0 hPa 0,0 l/m 0 min 0 min 0 W/m 3,2 km/h (1 Bft) 97,87 %
14.10.2023 23:30 8,8 C 7,8 C 5,0 C 89 % 1019,0 hPa 0,0 l/m 0 min 0 min 0 W/m 3,2 km/h (1 Bft) 93,62 %
14.10.2023 23:32 8,8 C 7,8 C 5,0 C 89 % 1019,0 hPa 0,0 l/m 0 min 0 min 0 W/m 3,2 km/h (1 Bft) 97,87 %
14.10.2023 23:34 8,8 C 7,8 C 5,0 C 90 % 1019,0 hPa 0,0 l/m 0 min 0 min 0 W/m 3,2 km/h (1 Bft) 95,65 %
14.10.2023 23:36 8,7 C 7,8 C 5,0 C 90 % 1019,0 hPa 0,0 l/m 0 min 0 min 0 W/m 3,2 km/h (1 Bft) 97,87 %
14.10.2023 23:38 8,7 C 7,8 C 5,0 C 90 % 1019,0 hPa 0,0 l/m 0 min 0 min 0 W/m 0,0 km/h (0 Bft) 97,87 %
14.10.2023 23:40 8,7 C 7,8 C 5,0 C 90 % 1019,0 hPa 0,0 l/m 0 min 0 min 0 W/m 3,2 km/h (1 Bft) 97,87 %
14.10.2023 23:42 8,7 C 7,8 C 5,0 C 90 % 1019,0 hPa 0,0 l/m 0 min 0 min 0 W/m 3,2 km/h (1 Bft) 97,87 %
14.10.2023 23:44 8,7 C 7,8 C 5,0 C 90 % 1019,0 hPa 0,0 l/m 0 min 0 min 0 W/m 6,4 km/h (2 Bft) 93,62 %
14.10.2023 23:46 8,6 C 7,8 C 5,0 C 89 % 1019,0 hPa 0,0 l/m 0 min 0 min 0 W/m 6,4 km/h (2 Bft) 93,62 %
14.10.2023 23:48 8,6 C 7,8 C 5,0 C 90 % 1019,0 hPa 0,0 l/m 0 min 0 min 0 W/m 3,2 km/h (1 Bft) 97,87 %
14.10.2023 23:50 8,6 C 7,8 C 5,0 C 90 % 1019,0 hPa 0,0 l/m 0 min 0 min 0 W/m 6,4 km/h (2 Bft) 97,83 %
14.10.2023 23:52 8,6 C 7,8 C 4,4 C 90 % 1019,0 hPa 0,0 l/m 0 min 0 min 0 W/m 6,4 km/h (2 Bft) 97,87 %
14.10.2023 23:54 8,6 C 7,8 C 4,4 C 90 % 1019,0 hPa 0,0 l/m 0 min 0 min 0 W/m 6,4 km/h (2 Bft) 97,14 %
14.10.2023 23:56 8,5 C 7,8 C 5,0 C 90 % 1019,0 hPa 0,0 l/m 0 min 0 min 0 W/m 3,2 km/h (1 Bft) 97,87 %
14.10.2023 23:58 8,5 C 7,8 C 4,4 C 90 % 1019,0 hPa 0,0 l/m 0 min 0 min 0 W/m 3,2 km/h (1 Bft) 97,87 %
_ Min-Zeit 23:56 23:20 23:52 14:04 01:02 - - - - 21:36 05:00
Minimum _ 8,5 C 7,8 C 4,4 C 64 % 1000,5 hPa - - - - 0,0 km/h (0 Bft) 50,00 %
_ Max-Zeit 01:16 01:10 01:14 04:40 22:42 03:20 16:08 02:14 14:24 01:24 00:02
Maximum _ 20,3 C 19,4 C 14,4 C 97 % 1019,0 hPa 1,6 l/m 4 min 4 min 610 W/m 61,2 km/h
S-SW (7 Bft)
100,00 %
Durchschnitt _ 13,3 C 12,6 C 8,8 C 84 % 1011,5 hPa #10,4 l/m #2:04 h #2:56 h 135 W/m 14,8 km/h (3 Bft) 97,27 %
© 2023 W. Hausmann